     2              OBSERVATION DATA    GPS                 RINEX VERSION / TYPE
teqc 2000Feb29 Duncan Agnew 20000707 21:02:29UTC            PGM / RUN BY / DATE
                                                            COMMENT
L2: 1 -> 1; 5 -> 5; 60 -> 9                                 COMMENT
L2: 1 -> 1; 5 -> 5; 60 -> 9                                 COMMENT
L2: 1 -> 1; 5 -> 5; 60 -> 9                                 COMMENT
L2: 1 -> 1; 5 -> 5; 60 -> 9                                 COMMENT
L2: 1 -> 1; 5 -> 5; 60 -> 9                                 COMMENT
Original Marker Name: 6410                                  COMMENT
Campaign Name: USMC MCAGCC                                  COMMENT
4-Character Station Name: ELEP                              COMMENT
6-Character Antenna Code: TRMSST                            COMMENT
Vertical Measurement Point: BGP                             COMMENT
Vertical Offset to Rinex Ref. Point: 0.0597                 COMMENT
Radial Measurement Point: NGP                               COMMENT
Radial Offset to Rinex Ref. Point: 0.2334                   COMMENT
Antenna Height from Field Measurement: 1.4010 m             COMMENT
Additional Antenna Identification Info.:                    COMMENT
Model 14532.00                                              COMMENT
Original XYZ: -2310903.8397 -4726300.0315 3594640.9515      COMMENT
New XYZ position is based on association with SCEC monument COMMENT
E1F2K1L4+0011. Position of that monument is believed to be  COMMENT
valid to within 1 m horizontally; vertical accuracy         COMMENT
should be no worse than 3-times this value.                 COMMENT
                                                            COMMENT
Revised Rinex header created by UCSD GPS archive for        COMMENT
GSAC on 10-Aug-2000 (2000:223) 22:27:56 GMT                 COMMENT
For assistance contact dagnew@ucsd.edu                      COMMENT
or anderson@python.ucsd.edu                                 COMMENT
                                                            COMMENT
ELEPHANT                                                    MARKER NAME
____0001                                                    MARKER NUMBER
-Unknown- 11TH ARTILLERY US MARINE CORPS                    OBSERVER / AGENCY
16410 TRIMBLE MSGR NP 7.57; SP 3.53                         REC # / TYPE / VERS
S/N UNKNOWN TR 4000SST L1/L2 GEO                            ANT # / TYPE
 -2310903.7150 -4726301.6682  3594640.6121                  APPROX POSITION XYZ
        1.3217        0.0000        0.0000                  ANTENNA: DELTA H/E/N
     1     1     0                                          WAVELENGTH FACT L1/2
     6    L1    L2    P1    P2    S1    S2                  # / TYPES OF OBSERV
     0                                                      INTERVAL
  1999     3     2    19    59   45.000000                  TIME OF FIRST OBS
  1999     3     2    20    47    0.000000                  TIME OF LAST OBS
                                                            END OF HEADER
 99  3  2 19 59 45.0000000  0  6G 2G 7G 4G 9G26G27
   5784517.29417   4507414.82216  21505544.133    21505551.246          21.000
        18.000
   2330705.17617   1816137.27216  20461678.773    20461685.305          20.750
        19.750
  -1523669.09314  -1187267.01115  23495851.742    23495863.176           6.500
         6.250
  -1642730.93613  -1270752.87815  23993909.250    23993919.145           6.000
         7.500
   4070473.44015   3174681.86016  23074514.438    23074522.816          11.250
        12.500
  12012428.93116   9360325.85616  21970306.984    21970315.211          15.000
        15.000
 99  3  2 20  0  0.0000000  0  6G 2G 7G 4G 9G26G27
   5813979.669 7   4530372.503 6  21511150.836    21511157.883          21.000
        18.000
   2355162.500 7   1835194.936 6  20466332.852    20466339.527          21.000
        19.750
  -1555690.498 4  -1212218.611 5  23489758.156    23489769.684           6.500
         6.250
  -1670856.673 3  -1292668.985 5  23988556.672    23988567.078           5.500
         7.750
   4104270.274 5   3201017.035 6  23080945.828    23080954.129          11.500
        12.500
  12075776.586 6   9409687.616 6  21982361.711    21982370.176          15.000
        14.750
 99  3  2 20  0 15.0000000  0  6G 2G 7G 4G 9G26G27
   5843482.556 7   4553361.762 6  21516765.039    21516772.086          21.000
        18.000
   2379710.683 7   1854323.399 6  20471004.422    20471010.980          21.000
        20.000
  -1587688.989 4  -1237152.356 5  23483668.930    23483680.535           6.750
         6.500
  -1698960.798 3  -1314568.275 5  23983208.656    23983219.055           5.500
         7.750
   4138177.453 5   3227438.202 6  23087398.102    23087406.660          11.500
        12.750
  12139209.619 6   9459115.896 6  21994432.641    21994441.066          15.000
        14.750
 99  3  2 20  0 30.0000000  4  1
0.000                                                       COMMENT
 99  3  2 20  0 30.0000000  0  6G 2G 7G 4G 9G26G27
   5873019.697 7   4576377.706 6  21522385.688    21522392.734          21.000
        18.000
   2404345.334 7   1873519.235 6  20475692.063    20475698.656          21.000
        19.750
  -1619669.515 4  -1262072.110 5  23477583.148    23477594.684           6.750
         6.500
  -1727046.299 3  -1336453.029 5  23977864.406    23977874.594           5.750
         8.250
   4172191.422 5   3253942.570 6  23093870.664    23093879.180          11.250
        12.750
  12202727.918 6   9508610.620 6  22006519.914    22006528.387          15.000
        14.750
 99  3  2 20  0 45.0000000  0  6G 2G 7G 4G 9G26G27
   5902591.770 7   4599420.872 6  21528013.164    21528020.141          21.000
        17.750
   2429073.423 7   1892787.884 6  20480397.672    20480404.297          21.000
        20.250
  -1651629.458 4  -1286975.819 5  23471501.422    23471512.875           6.750
         6.750
  -1755109.370 3  -1358320.324 5  23972524.445    23972534.129           6.000
         8.500
   4206316.368 5   3280533.422 6  23100364.508    23100372.957          11.250
        12.750
  12266337.331 6   9558176.330 6  22018624.352    22018632.855          14.750
        14.750
 99  3  2 20  1  0.0000000  0  6G 2G 7G 4G 9G26G27
   5932206.752 7   4622497.472 6  21533648.711    21533655.734          21.000
        18.000
   2453902.118 7   1912134.925 6  20485122.266    20485128.863          21.000
        20.000
  -1683561.952 4  -1311858.147 5  23465424.750    23465436.203           6.750
         6.750
  -1783148.045 3  -1380168.600 5  23967188.828    23967198.840           6.000
         8.500
   4240558.368 5   3307215.484 6  23106880.633    23106889.004          11.250
        12.750
  12330045.311 6   9607818.861 6  22030747.766    22030756.145          14.750
        14.500
 99  3  2 20  1 15.0000000  0  6G 2G 7G 4G 9G26G27
   5961862.930 7   4645606.167 6  21539292.102    21539299.078          21.250
        17.750
   2478825.073 7   1931555.416 6  20489865.008    20489871.648          21.000
        20.000
  -1715471.075 4  -1336722.265 5  23459352.508    23459364.020           7.000
         7.000
  -1811164.174 4  -1401999.310 5  23961857.508    23961867.520           6.250
         9.000
   4274914.446 5   3333986.431 6  23113418.133    23113426.621          11.000
        12.750
  12393847.905 6   9657535.112 6  22042888.977    22042897.359          14.750
        14.250
 99  3  2 20  1 30.0000000  4  1
1.401                                                       COMMENT
 99  3  2 20  1 30.0000000  0  6G 2G 7G 4G 9G26G27
   5991556.072 7   4668743.671 6  21544942.516    21544949.551          21.250
        17.500
   2503836.300 7   1951044.681 6  20494624.508    20494631.195          20.750
        20.000
  -1747365.814 4  -1361575.195 5  23453283.000    23453294.422           7.250
         7.000
  -1839165.192 4  -1423818.242 5  23956529.258    23956538.992           6.750
         9.000
   4309374.046 5   3360838.042 6  23119975.742    23119984.242          11.000
        12.750
  12457736.950 6   9707318.727 6  22055046.867    22055055.152          14.500
        14.250
 99  3  2 20  1 45.0000000  0  6G 2G 7G 4G 9G26G27
   6021285.508 7   4691909.456 6  21550599.945    21550606.785          21.500
        17.500
   2528938.255 7   1970604.654 6  20499401.391    20499407.938          21.000
        20.250
  -1779250.039 4  -1386419.915 5  23447215.539    23447226.805           7.250
         7.250
  -1867151.899 4  -1445626.025 5  23951203.164    23951213.320           6.750
         9.250
   4343932.462 5   3387766.662 6  23126552.148    23126560.688          11.000
        12.750
  12521710.464 6   9757168.157 6  22067220.484    22067228.965          14.500
        14.250
 99  3  2 20  2  0.0000000  0  6G 2G 7G 4G 9G26G27
   6051053.794 7   4715105.513 6  21556264.602    21556271.348          21.500
        17.500
   2554138.143 7   1990240.933 6  20504196.703    20504203.348          21.000
        20.250
  -1811118.958 4  -1411252.705 5  23441150.977    23441161.930           7.250
         7.250
  -1895114.627 4  -1467415.117 5  23945882.297    23945892.242           7.250
         9.250
   4378596.192 5   3414777.340 6  23133148.383    23133156.742          10.750
        12.750
  12585775.022 6   9807088.541 6  22079411.719    22079420.055          14.500
        14.250
 99  3  2 20  2 15.0000000  0  6G 2G 7G 4G 9G26G27
   6080855.331 7   4738327.480 6  21561935.625    21561942.633          21.500
        17.750
   2579432.020 7   2009950.449 6  20509010.047    20509016.590          21.000
        20.000
  -1842976.701 4  -1436076.812 5  23435088.805    23435099.707           7.250
         7.250
  -1923050.873 5  -1489183.582 5  23940566.227    23940576.137           7.500
         9.000
   4413360.128 5   3441866.094 6  23139763.742    23139772.059          10.750
        12.500
  12649928.301 6   9857078.050 6  22091619.664    22091628.109          14.250
        14.000
 99  3  2 20  2 30.0000000  0  6G 2G 7G 4G 9G26G27
   6110679.030 7   4761566.718 6  21567610.789    21567617.680          21.500
        17.500
   2604811.713 7   2029726.840 6  20513839.555    20513846.254          21.000
        20.250
  -1874830.526 4  -1460897.831 5  23429027.047    23429038.086           7.250
         7.500
  -1950967.022 5  -1510936.397 5  23935253.992    23935263.680           7.750
         8.750
   4448215.889 5   3469026.412 6  23146396.383    23146405.031          10.500
        12.500
  12714159.278 6   9907128.093 6  22103842.367    22103850.781          14.250
        14.000
 99  3  2 20  2 45.0000000  0  6G 2G 7G 4G 9G26G27
   6140541.323 7   4784836.023 6  21573293.664    21573300.570          21.750
        17.500
   2630294.264 7   2049583.370 6  20518688.766    20518695.313          21.000
        20.250
  -1906664.029 5  -1485703.035 5  23422969.148    23422980.484           7.500
         7.750
  -1978847.693 5  -1532661.565 5  23929948.594    23929958.117           8.000
         8.750
   4483178.567 5   3496270.032 6  23153049.844    23153058.316          10.500
        12.500
  12778479.152 6   9957247.411 6  22116082.242    22116090.609          14.000
        14.000
 99  3  2 20  3  0.0000000  0  6G 2G 7G 4G 9G26G27
   6170432.393 7   4808127.755 6  21578981.719    21578988.586          21.500
        17.500
   2655866.632 7   2069509.898 6  20523554.906    20523561.469          21.000
        20.000
  -1938484.913 5  -1510498.398 5  23416913.602    23416924.930           7.500
         7.750
  -2006704.048 5  -1554367.773 5  23924647.633    23924657.141           8.250
         9.000
   4518233.793 5   3523585.770 6  23159720.469    23159729.098          10.250
        12.500
  12842872.429 6  10007423.931 6  22128335.922    22128344.277          14.000
        13.750
 99  3  2 20  3 15.0000000  0  6G 2G 7G 4G 9G26G27
   6200349.868 7   4831440.058 6  21584674.805    21584681.727          21.500
        17.500
   2681519.174 7   2089498.898 6  20528436.367    20528442.961          21.000
        20.000
  -1970296.718 5  -1535286.701 5  23410859.938    23410871.051           7.500
         7.750
  -2034536.541 5  -1576055.402 5  23919351.016    23919360.664           8.750
         9.000
   4553375.149 5   3550968.619 6  23166407.656    23166416.320          10.250
        12.250
  12907334.197 6  10057653.816 6  22140602.672    22140611.020          13.750
        13.500
 99  3  2 20  3 30.0000000  0  6G 2G 7G 4G 9G26G27
   6230306.591 7   4854782.954 6  21590375.492    21590382.441          21.500
        17.500
   2707264.160 7   2109559.921 6  20533335.578    20533342.102          20.750
        20.000
  -2002085.501 5  -1560057.057 5  23404810.781    23404821.797           7.750
         8.000
  -2062327.978 5  -1597711.025 5  23914063.031    23914072.395           8.750
         9.000
   4588616.891 5   3578429.697 6  23173113.766    23173122.379          10.000
        12.250
  12971878.087 6  10107947.695 6  22152884.977    22152893.277          13.500
        13.500
 99  3  2 20  3 45.0000000  0  6G 2G 7G 4G 9G26G27
   6260301.450 7   4878155.566 6  21596083.328    21596090.121          21.750
        17.500
   2733102.849 7   2129693.971 6  20538252.602    20538259.156          20.500
        20.000
  -2033850.422 5  -1584808.814 5  23398765.992    23398777.035           7.750
         8.000
  -2090076.136 5  -1619332.941 5  23908782.578    23908791.957           9.000
         8.750
   4623961.416 5   3605970.859 6  23179839.813    23179848.266          10.000
        12.250
  13036507.440 6  10158308.164 6  22165183.492    22165191.801          13.250
        13.500
 99  3  2 20  4  0.0000000  0  6G 2G 7G 4G 9G26G27
   6290307.302 7   4901536.742 6  21601793.273    21601800.133          21.750
        17.500
   2759009.908 7   2149881.291 6  20543182.391    20543188.906          20.500
        20.000
  -2065613.696 5  -1609559.289 5  23392721.617    23392732.563           7.750
         8.250
  -2117802.846 5  -1640938.133 5  23903506.242    23903515.406           9.000
         8.250
   4659389.019 5   3633576.768 6  23186581.352    23186590.020          10.000
        12.250
  13101200.038 6  10208717.914 6  22177494.227    22177502.629          13.250
        13.250
 99  3  2 20  4 15.0000000  0  6G 2G 7G 4G 9G26G27
   6320348.722 7   4924945.630 6  21607509.984    21607516.945          21.750
        17.500
   2785007.909 7   2170139.478 6  20548129.750    20548136.250          20.500
        20.000
  -2097350.544 5  -1634289.181 5  23386682.156    23386693.309           7.750
         8.250
  -2145483.634 5  -1662507.546 5  23898238.844    23898247.676           9.250
         8.000
   4694926.763 5   3661268.481 6  23193343.938    23193352.734          10.000
        12.250
  13165979.736 6  10259195.537 6  22189821.234    22189829.742          13.000
        13.500
 99  3  2 20  4 30.0000000  0  6G 2G 7G 4G 9G26G27
   6350421.904 7   4948379.270 6  21613232.766    21613239.758          21.750
        17.500
   2811091.204 7   2190464.121 6  20553093.258    20553099.895          20.500
        20.000
  -2129065.741 5  -1659002.196 5  23380646.977    23380657.844           8.000
         8.250
  -2173125.025 5  -1684046.262 5  23892978.852    23892987.660           9.250
         7.750
   4730571.885 5   3689043.878 5  23200126.977    23200135.629          10.000
        11.750
  13230839.554 6  10309735.589 6  22202163.711    22202172.141          13.000
        13.500
 99  3  2 20  4 45.0000000  0  6G 2G 7G 4G 9G26G27
   6380522.801 7   4971834.506 6  21618960.727    21618967.637          21.000
        17.500
   2837258.836 6   2210854.488 6  20558072.711    20558079.336          19.750
        20.000
  -2160762.441 5  -1683700.793 5  23374615.086    23374626.078           7.750
         8.500
  -2200734.754 5  -1705560.319 5  23887725.078    23887733.992           8.750
         7.750
   4766322.855 5   3716901.753 5  23206930.141    23206938.965           9.500
        11.500
  13295776.421 6  10360335.688 6  22214520.867    22214529.418          12.500
        13.500
 99  3  2 20  5  0.0000000  0  6G 2G 7G 4G 9G26G27
   6410653.659 7   4995313.090 6  21624694.398    21624701.305          21.000
        17.750
   2863509.393 6   2231309.468 6  20563068.039    20563074.676          19.500
        20.000
  -2192439.866 5  -1708384.368 5  23368587.008    23368597.727           7.750
         8.250
  -2228311.149 5  -1727048.384 5  23882477.344    23882486.238           8.500
         7.750
   4802179.493 5   3744841.964 5  23213753.609    23213762.004           9.750
        11.500
  13360795.120 6  10410999.538 6  22226893.547    22226902.047          12.250
        13.500
 99  3  2 20  5 15.0010000  0  6G 2G 7G 4G 9G26G27
   6440817.131 7   5018817.089 6  21630434.364    21630441.278          21.750
        17.500
   2889843.151 7   2251829.278 6  20568079.091    20568085.724          20.000
        20.000
  -2224099.457 5  -1733054.068 5  23362562.114    23362573.126           8.000
         8.500
  -2255851.517 5  -1748508.371 5  23877236.497    23877245.356           9.000
         7.750
   4838144.966 5   3772866.980 5  23220597.575    23220605.966          10.000
        11.250
  13425904.190 6  10461733.817 6  22239283.489    22239292.048          12.750
        13.500
 99  3  2 20  5 30.0010000  0  6G 2G 7G 4G 9G26G27
   6471004.173 7   5042339.453 6  21636178.888    21636185.638          21.000
        17.500
   2916253.509 6   2272408.776 6  20573104.825    20573111.423          19.500
        20.000
  -2255745.176 5  -1757712.944 5  23356540.122    23356550.876           7.750
         8.500
  -2283357.238 5  -1769941.362 5  23872002.224    23872011.028           8.500
         8.000
   4874209.060 5   3800968.848 5  23227460.333    23227468.813           9.750
        11.250
  13491089.844 6  10512527.763 6  22251687.919    22251696.517          12.250
        13.500
 99  3  2 20  5 45.0010000  0  6G 2G 7G 4G 9G26G27
   6501221.002 7   5065885.026 6  21641928.919    21641935.708          21.250
        17.500
   2942748.595 6   2293054.300 6  20578146.669    20578153.224          19.500
        20.000
  -2287378.200 5  -1782361.930 5  23350520.247    23350531.274           8.000
         8.750
  -2310828.331 5  -1791347.369 5  23866774.708    23866783.817           8.750
         8.000
   4910377.287 5   3829151.857 5  23234342.997    23234351.513           9.750
        11.250
  13556357.124 6  10563385.318 6  22264107.989    22264116.704          12.250
        13.750
 99  3  2 20  6  0.0010000  0  6G 2G 7G 4G 9G26G27
   6531478.637 7   5089462.396 6  21647686.724    21647693.567          21.750
        17.500
   2969340.499 7   2313775.263 6  20583206.888    20583213.505          20.000
        20.000
  -2318988.262 5  -1806993.030 5  23344505.200    23344515.845           8.250
         9.000
  -2338256.110 5  -1812719.634 5  23861555.489    23861564.165           9.000
         8.500
   4946658.582 5   3857422.963 5  23241247.083    23241255.399          10.000
        11.250
  13621715.311 6  10614313.706 6  22276545.294    22276553.997          12.500
        14.000
 99  3  2 20  6 15.0010000  0  6G 2G 7G 4G 9G26G27
   6561776.336 7   5113070.991 6  21653452.036    21653458.821          21.750
        17.500
   2996025.142 7   2334568.496 6  20588284.575    20588291.188          20.000
        20.000
  -2350577.070 5  -1831607.564 5  23338493.903    23338504.731           8.500
         9.000
  -2365646.154 5  -1834062.476 5  23856343.044    23856352.196           8.750
         9.000
   4983049.635 5   3885779.609 5  23248172.302    23248180.634          10.000
        11.000
  13687159.218 6  10665308.892 6  22288998.810    22289007.571          12.500
        14.000
 99  3  2 20  6 30.0010000  0  6G 2G 7G 4G 9G26G27
   6592101.678 7   5136701.120 6  21659222.856    21659229.739          22.000
        17.750
   3022789.693 7   2355423.985 6  20593377.872    20593384.513          20.000
        20.000
  -2382156.414 5  -1856214.714 5  23332484.372    23332495.009           8.500
         9.250
  -2393013.105 5  -1855387.334 5  23851135.349    23851144.052           9.250
         8.750
   5019534.136 5   3914209.058 5  23255115.091    23255123.442          10.000
        11.000
  13752673.186 6  10716358.677 6  22301465.903    22301474.634          12.250
        14.000
 99  3  2 20  6 45.0010000  0  6G 2G 7G 4G 9G26G27
   6622469.344 7   5160364.229 6  21665001.528    21665008.630          21.750
        17.750
   3049649.464 7   2376353.671 6  20598489.278    20598495.919          20.000
        20.250
  -2413709.061 5  -1880801.068 5  23326480.028    23326490.856           8.750
         9.250
  -2420341.319 5  -1876682.003 5  23845935.083    23845943.774           9.250
         9.000
   5056123.657 5   3942720.336 5  23262077.856    23262086.411          10.000
        11.000
  13818272.027 6  10767474.585 6  22313948.708    22313957.567          12.000
        13.750
 99  3  2 20  7  0.0010000  0  6G 2G 7G 4G 9G26G27
   6652870.855 7   5184053.710 6  21670786.864    21670793.821          21.750
        17.750
   3076594.142 7   2397349.526 6  20603616.778    20603623.228          20.250
        20.000
  -2445241.789 5  -1905371.903 5  23320479.435    23320490.028           8.750
         9.500
  -2447638.842 5  -1897952.771 5  23840740.505    23840749.376           9.000
         9.000
   5092807.834 5   3971305.391 5  23269058.599    23269067.200          10.500
        11.000
  13883945.094 6  10818648.336 6  22326446.169    22326454.989          12.000
        13.750
 99  3  2 20  7 15.0010000  0  6G 2G 7G 4G 9G26G27
   6683311.655 7   5207773.811 6  21676579.521    21676586.341          21.750
        17.750
   3103625.345 7   2418412.805 6  20608760.489    20608767.161          20.000
        20.250
  -2476748.416 5  -1929922.406 5  23314483.888    23314494.544           9.000
         9.750
  -2474898.630 5  -1919194.120 5  23835552.778    23835561.833           8.750
         8.750
   5129590.532 5   3999967.205 5  23276058.263    23276066.556          10.500
        11.000
  13949695.339 6  10869882.229 6  22338957.958    22338966.747          12.250
        13.750
 99  3  2 20  7 30.0010000  0  6G 2G 7G 4G 9G26G27
   6713802.237 7   5231532.694 6  21682381.653    21682388.646          21.750
        18.000
   3130754.765 7   2439552.612 6  20613923.138    20613929.849          20.000
        20.250
  -2508219.199 5  -1954444.987 5  23308495.185    23308505.771           9.000
         9.750
  -2502111.349 5  -1940398.803 5  23830374.325    23830383.380           8.750
         8.750
   5166481.863 5   4028713.665 5  23283078.349    23283086.681          10.500
        10.750
  14015529.949 6  10921181.860 6  22351486.067    22351494.880          12.250
        14.000
 99  3  2 20  7 45.0010000  0  6G 2G 7G 4G 9G26G27
   6744331.817 7   5255321.971 6  21688191.278    21688198.380          21.750
        18.000
   3157969.453 7   2460758.865 6  20619101.841    20619108.540          20.000
        20.250
  -2539664.993 5  -1978948.078 5  23302510.974    23302521.833           9.000
        10.000
  -2529293.312 5  -1961579.513 5  23825202.177    23825210.911           8.750
         8.750
   5203471.978 5   4057537.105 5  23290117.302    23290125.841          10.500
        10.750
  14081435.563 6  10972536.824 6  22364027.552    22364036.325          12.250
        13.750
 99  3  2 20  8  0.0010000  0  6G 2G 7G 4G 9G26G27
   6774896.319 7   5279138.463 6  21694007.521    21694014.485          21.750
        18.000
   3185265.833 7   2482028.769 6  20624296.271    20624302.974          20.000
        20.250
  -2571081.736 5  -2003428.541 5  23296532.606    23296543.415           9.000
        10.250
  -2556445.468 5  -1982737.001 5  23820035.122    23820043.634           8.500
         8.750
   5240560.874 5   4086437.515 5  23297175.052    23297183.618          10.250
        10.750
  14147412.878 6  11023947.659 6  22376582.614    22376591.489          12.000
        13.750
 99  3  2 20  8 15.0010000  0  6G 2G 7G 4G 9G26G27
   6805501.330 7   5302986.519 6  21699831.521    21699838.575          21.750
        18.250
   3212645.259 7   2503363.380 6  20629506.247    20629512.899          20.000
        20.250
  -2602460.485 5  -2027879.404 5  23290561.333    23290572.044           9.250
        10.500
  -2583563.147 5  -2003867.616 5  23814874.521    23814883.364           8.250
         8.750
   5277755.001 5   4115419.915 5  23304252.724    23304261.337          10.250
        10.750
  14213468.448 6  11075419.463 6  22389152.638    22389161.427          12.000
        13.750
 99  3  2 20  8 30.0010000  0  6G 2G 7G 4G 9G26G27
   6836143.818 7   5326863.774 6  21705662.599    21705669.720          21.750
        18.250
   3240105.215 7   2524760.748 6  20634731.731    20634738.341          20.000
        20.500
  -2633800.475 5  -2052300.053 5  23284597.536    23284608.040           9.500
        10.500
  -2610646.299 5  -2024971.331 5  23809720.708    23809729.622           8.250
         8.750
   5315051.716 5   4144482.268 5  23311350.216    23311358.728          10.250
        10.500
  14279597.802 6  11126948.763 6  22401736.622    22401745.649          12.000
        14.000
 99  3  2 20  8 45.0010000  0  6G 2G 7G 4G 9G26G27
   6866822.949 7   5350769.583 6  21711500.528    21711507.642          21.500
        18.250
   3267643.063 7   2546218.814 6  20639972.044    20639978.708          20.250
        20.250
  -2665104.421 5  -2076692.634 5  23278640.450    23278651.056           9.750
        10.500
  -2637694.728 5  -2046047.994 5  23804573.716    23804582.392           8.750
         8.750
   5352447.219 5   4173621.591 5  23318466.552    23318474.841          10.250
        10.500
  14345798.079 6  11178533.326 6  22414334.333    22414343.118          12.250
        14.000
 99  3  2 20  9  0.0010000  0  6G 2G 7G 4G 9G26G27
   6897545.712 7   5374709.391 6  21717346.825    21717353.853          21.750
        18.000
   3295260.822 7   2567739.141 6  20645227.599    20645234.196          20.250
        20.250
  -2696370.169 5  -2101055.453 5  23272690.661    23272701.274           9.750
        10.500
  -2664703.583 5  -2067093.834 5  23799433.974    23799442.774           9.000
         8.750
   5389947.782 5   4202842.771 5  23325602.544    23325610.876          10.500
        10.500
  14412075.514 6  11230178.018 6  22426946.333    22426955.321          12.000
        13.750
 99  3  2 20  9 15.0010000  0  6G 2G 7G 4G 9G26G27
   6928311.671 7   5398682.854 6  21723201.505    21723208.556          21.750
        18.250
   3322957.159 7   2589320.704 6  20650498.075    20650504.692          20.250
        20.500
  -2727599.955 5  -2125390.241 5  23266747.997    23266758.255           9.750
        10.500
  -2691672.796 5  -2088108.774 5  23794302.021    23794310.521           9.000
         8.250
   5427552.486 5   4232145.115 5  23332758.474    23332766.993          10.500
        10.500
  14478432.174 6  11281884.446 6  22439573.771    22439582.595          12.000
        13.500
 99  3  2 20  9 30.0010000  0  6G 2G 7G 4G 9G26G27
   6959122.122 7   5422690.994 6  21729064.474    21729071.661          21.750
        18.250
   3350735.419 7   2610966.101 6  20655784.114    20655790.751          20.250
        20.500
  -2758796.094 5  -2149698.810 5  23260811.349    23260821.751          10.000
        10.750
  -2718602.890 5  -2109093.219 5  23789177.427    23789185.946           9.250
         8.250
   5465261.092 5   4261528.415 5  23339934.614    23339942.798          10.500
        10.750
  14544870.566 6  11333654.556 6  22452216.481    22452225.489          12.000
        13.500
 99  3  2 20  9 45.0010000  0  6G 2G 7G 4G 9G26G27
   6989988.852 7   5446742.981 6  21734938.208    21734945.396          21.750
        18.500
   3378609.006 7   2632685.780 6  20661088.255    20661094.813          20.250
        20.250
  -2789946.614 5  -2173971.839 5  23254883.708    23254893.810          10.000
        10.750
  -2745482.769 5  -2130038.549 5  23784062.263    23784070.653           9.250
         8.000
   5503084.738 5   4291001.358 5  23347132.271    23347140.532          10.750
        10.750
  14611402.389 6  11385497.470 6  22464877.200    22464886.220          12.000
        13.500
 99  3  2 20 10  0.0010000  0  6G 2G 7G 4G 9G26G27
   7020898.214 7   5470828.189 6  21740820.091    21740827.185          21.750
        18.500
   3406567.877 7   2654471.914 6  20666408.614    20666415.310          20.250
        20.250
  -2821062.850 5  -2198218.146 5  23248962.239    23248972.450          10.000
        10.750
  -2772321.167 5  -2150951.543 5  23778955.138    23778963.649           9.000
         8.250
   5541012.527 5   4320555.451 5  23354349.685    23354357.821          10.500
        10.750
  14678018.189 6  11437405.816 6  22477553.856    22477562.739          12.000
        13.500
 99  3  2 20 10 15.0010000  0  6G 2G 7G 4G 9G26G27
   7051849.798 7   5494946.298 6  21746710.106    21746717.231          21.500
        18.500
   3434614.389 7   2676326.333 6  20671745.591    20671752.110          20.000
        20.500
  -2852146.372 5  -2222438.977 5  23243047.091    23243057.587          10.250
        10.750
  -2799114.733 5  -2171829.626 5  23773856.146    23773865.067           8.750
         8.250
   5579042.641 5   4350189.270 5  23361586.560    23361594.825          10.750
        11.000
  14744717.191 6  11489379.002 6  22490246.247    22490255.212          12.000
        13.500
 99  3  2 20 10 30.0010000  0  6G 2G 7G 4G 9G26G27
   7082842.139 7   5519096.166 6  21752607.802    21752614.802          21.750
        18.500
   3462748.479 7   2698249.004 6  20677099.372    20677106.001          20.250
        20.250
  -2883200.769 5  -2246637.102 5  23237137.599    23237147.985          10.500
        10.750
  -2825867.591 5  -2192675.978 5  23768765.380    23768774.075           8.750
         8.250
   5617172.415 5   4379900.746 5  23368842.380    23368850.685          10.750
        10.750
  14811495.745 6  11541414.175 6  22502953.817    22502962.739          12.250
        13.250
 99  3  2 20 10 45.0010000  0  6G 2G 7G 4G 9G26G27
   7113875.025 7   5543277.628 6  21758513.044    21758520.239          21.750
        18.750
   3490973.393 7   2720242.443 6  20682470.513    20682477.067          20.250
        20.250
  -2914226.653 5  -2270813.009 5  23231233.380    23231243.704          10.500
        11.000
  -2852577.178 5  -2213488.608 5  23763682.427    23763691.286           8.500
         8.500
   5655401.516 5   4409689.637 5  23376117.185    23376125.579          10.750
        11.000
  14878357.640 6  11593514.296 6  22515677.341    22515686.239          12.250
        13.250
 99  3  2 20 11  0.0010000  0  6G 2G 7G 4G 9G26G27
   7144949.423 7   5567491.432 6  21764426.200    21764433.462          21.500
        18.750
   3519289.920 7   2742307.271 6  20687858.880    20687865.376          20.000
        20.000
  -2945225.723 5  -2294968.026 5  23225334.638    23225344.747          10.500
        11.250
  -2879243.225 5  -2234267.290 5  23758608.349    23758617.028           8.750
         8.750
   5693731.026 5   4439556.741 5  23383411.091    23383419.505          10.500
        11.250
  14945307.556 6  11645682.994 6  22528417.450    22528426.599          12.250
        13.250
 99  3  2 20 11 15.0010000  0  6G 2G 7G 4G 9G26G27
   7176065.391 7   5591737.630 6  21770347.466    21770354.696          21.500
        18.750
   3547704.239 7   2764448.301 6  20693266.106    20693272.591          20.000
        20.000
  -2976191.946 5  -2319097.449 5  23219441.810    23219451.974          10.750
        11.250
  -2905863.329 5  -2255010.188 5  23753542.263    23753550.903           8.750
         8.250
   5732163.350 5   4469503.985 5  23390724.161    23390732.876          10.250
        11.250
  15012348.543 6  11697922.657 6  22541175.161    22541184.067          12.250
        13.250
 99  3  2 20 11 30.0010000  0  6G 2G 7G 4G 9G26G27
   7207230.729 7   5616022.301 6  21776277.919    21776285.239          21.500
        18.500
   3576227.022 7   2786673.845 6  20698693.692    20698700.200          20.000
        20.000
  -3007111.664 5  -2343190.626 5  23213557.849    23213568.114          10.750
        11.250
  -2932429.517 5  -2275711.085 5  23748486.958    23748495.474           9.000
         8.250
   5770705.174 5   4499536.537 5  23398058.497    23398067.251          10.250
        11.250
  15079482.653 6  11750234.887 6  22553950.364    22553959.333          12.250
        13.250
 99  3  2 20 11 45.0010000  0  6G 2G 7G 4G 9G26G27
   7238433.820 7   5640336.388 6  21782215.786    21782223.044          21.500
        18.750
   3604844.674 7   2808973.317 6  20704139.567    20704145.993          20.250
        20.000
  -3037992.534 5  -2367253.539 5  23207681.325    23207691.450          10.750
        11.500
  -2958954.060 5  -2296379.515 5  23743439.677    23743448.470           9.250
         8.750
   5809345.662 5   4529645.976 5  23405411.622    23405420.442          10.000
        11.250
  15146695.557 6  11802608.511 6  22566740.466    22566749.325          12.250
        13.000
 99  3  2 20 12  0.0010000  0  6G 2G 7G 4G 9G26G27
   7269675.616 7   5664680.635 6  21788160.935    21788168.126          21.250
        18.750
   3633554.224 7   2831344.398 6  20709602.739    20709609.188          20.000
        20.000
  -3068832.012 5  -2391284.196 5  23201812.661    23201822.778          11.000
        11.500
  -2985436.011 5  -2317014.761 5  23738400.075    23738408.677           9.500
         8.750
   5848085.773 5   4559833.042 5  23412783.505    23412792.380           9.750
        11.250
  15213984.825 6  11855041.640 6  22579545.341    22579554.146          12.250
        13.000
 99  3  2 20 12 15.0010000  0  6G 2G 7G 4G 9G26G27
   7300958.696 7   5689057.051 6  21794113.864    21794121.118          21.250
        18.750
   3662353.911 7   2853785.709 6  20715083.130    20715089.610          20.000
        20.000
  -3099627.449 5  -2415280.533 5  23195952.442    23195962.603          11.000
        11.500
  -3011873.445 5  -2337615.322 5  23733369.435    23733377.868           9.750
         9.000
   5886924.939 5   4590097.290 5  23420174.435    23420183.267           9.750
        11.250
  15281351.294 6  11907534.917 6  22592364.849    22592373.790          12.000
        13.000
 99  3  2 20 12 30.0010000  0  6G 2G 7G 4G 9G26G27
   7332279.532 7   5713462.880 6  21800073.989    21800081.356          21.250
        18.750
   3691235.471 6   2876290.820 6  20720578.989    20720585.474          19.750
        19.750
  -3130383.098 5  -2439245.872 5  23190099.786    23190109.907          11.000
        11.750
  -3038274.102 5  -2358187.231 5  23728345.622    23728354.333          10.000
         9.000
   5925854.948 5   4620432.336 5  23427582.575    23427591.274           9.750
        11.250
  15348786.811 6  11960082.005 6  22605197.356    22605206.505          12.000
        12.750
 99  3  2 20 12 45.0010000  0  6G 2G 7G 4G 9G26G27
   7363641.724 7   5737900.945 6  21806042.013    21806049.360          21.250
        18.500
   3720200.881 6   2898861.276 6  20726090.935    20726097.407          19.750
        19.750
  -3161094.367 5  -2463176.613 6  23184255.427    23184265.634          11.000
        12.000
  -3064632.821 5  -2378726.451 5  23723329.755    23723338.161          10.000
         9.000
   5964879.905 5   4650841.352 5  23435008.942    23435017.661           9.750
        11.250
  15416295.443 6  12012686.061 6  22618043.935    22618052.954          12.250
        12.750
 99  3  2 20 13  0.0010000  0  6G 2G 7G 4G 9G26G27
   7395038.232 7   5762365.745 6  21812016.458    21812023.829          21.000
        18.500
   3749241.363 6   2921490.224 6  20731617.036    20731623.673          19.500
        20.000
  -3191769.130 5  -2487078.919 6  23178418.200    23178428.196          11.250
        12.000
  -3090953.851 5  -2399236.305 5  23718320.825    23718329.380           9.750
         8.750
   6003991.439 5   4681317.836 5  23442451.700    23442460.298          10.000
        11.500
  15483867.975 6  12065339.916 6  22630902.411    22630911.356          12.000
        12.750
 99  3  2 20 13 15.0010000  0  6G 2G 7G 4G 9G26G27
   7426477.184 7   5786863.618 6  21817999.231    21818006.481          21.000
        18.500
   3778364.265 6   2944183.396 6  20737159.036    20737165.505          19.500
        19.750
  -3222398.811 5  -2510946.089 6  23172589.403    23172599.685          11.250
        12.000
  -3117230.300 5  -2419711.407 5  23713320.638    23713328.985          10.000
         8.750
   6043198.672 5   4711868.898 5  23449912.677    23449921.274          10.000
        11.500
  15551507.926 6  12118046.293 6  22643774.052    22643783.185          12.250
        12.500
 99  3  2 20 13 30.0010000  0  6G 2G 7G 4G 9G26G27
   7457966.002 7   5811400.346 6  21823991.419    21823998.606          21.000
        18.500
   3807576.763 6   2966946.387 6  20742717.966    20742724.618          19.250
        20.000
  -3252976.074 5  -2534772.424 6  23166770.669    23166780.798          11.500
        12.250
  -3143455.637 5  -2440146.705 5  23708330.044    23708338.302          10.250
         8.750
   6082510.640 5   4742501.574 5  23457393.622    23457402.071          10.000
        11.000
  15619220.104 6  12170808.960 6  22656659.286    22656668.333          12.250
        12.250
 99  3  2 20 13 45.0010000  0  6G 2G 7G 4G 9G26G27
   7489499.396 7   5835971.807 6  21829991.864    21829999.231          21.000
        18.500
   3836870.327 6   2989772.539 6  20748292.185    20748298.817          19.250
        20.000
  -3283509.062 5  -2558564.255 6  23160960.325    23160970.224          11.500
        12.000
  -3169634.640 5  -2460545.887 5  23703348.466    23703356.630          10.500
         8.750
   6121924.390 5   4773213.552 5  23464893.849    23464902.290          10.500
        11.000
  15687002.819 6  12223626.579 6  22669558.036    22669566.962          12.000
        12.250
 99  3  2 20 14  0.0010000  0  6G 2G 7G 4G 9G26G27
   7521074.149 7   5860575.495 6  21836000.442    21836007.810          20.750
        18.500
   3866243.196 6   3012660.490 6  20753881.489    20753888.138          19.250
        20.250
  -3314005.320 5  -2582327.459 6  23155157.083    23155167.067          11.750
        12.250
  -3195765.750 5  -2480907.750 5  23698375.958    23698384.146          10.500
         8.500
   6161438.759 5   4804003.923 5  23472413.317    23472421.591          10.500
        11.000
  15754859.957 5  12276502.202 6  22682470.739    22682479.935          11.750
        12.000
 99  3  2 20 14 15.0010000  0  6G 2G 7G 4G 9G26G27
   7552684.604 7   5885207.003 6  21842015.661    21842023.024          20.750
        18.500
   3895690.564 6   3035606.495 6  20759485.403    20759492.075          19.250
        20.250
  -3344473.344 5  -2606068.663 6  23149359.224    23149368.974          11.750
        12.250
  -3221853.579 5  -2501235.884 5  23693411.606    23693419.774          10.250
         8.750
   6201047.617 5   4834867.947 5  23479950.614    23479958.903          10.500
        11.000
  15822787.886 5  12329432.978 6  22695397.091    22695406.204          11.750
        12.000
 99  3  2 20 14 30.0010000  0  6G 2G 7G 4G 9G26G27
   7584328.653 7   5909864.685 6  21848037.411    21848044.688          21.000
        18.500
   3925215.717 6   3058613.110 6  20765103.927    20765110.567          19.250
        20.250
  -3374914.172 5  -2629788.675 6  23143566.450    23143576.399          11.750
        12.250
  -3247895.430 5  -2521528.197 5  23688455.833    23688463.954          10.500
         9.000
   6240751.275 5   4865805.822 5  23487505.981    23487514.259          10.750
        11.000
  15890789.157 5  12382420.909 5  22708337.380    22708346.380          11.750
        11.750
 99  3  2 20 14 45.0010000  0  6G 2G 7G 4G 9G26G27
   7616003.659 7   5934546.495 6  21854065.122    21854072.243          20.750
        18.250
   3954819.815 6   3081681.235 6  20770737.489    20770744.157          18.750
        20.500
  -3405329.667 5  -2653488.958 6  23137778.403    23137788.329          11.500
        12.250
  -3273892.841 5  -2541785.880 5  23683508.646    23683516.778           9.750
         9.000
   6280549.636 5   4896817.502 5  23495079.231    23495087.856          10.750
        11.000
  15958861.803 5  12435464.447 5  22721291.231    22721300.411          11.500
        11.750
 99  3  2 20 15  0.0010000  0  6G 2G 7G 4G 9G26G27
   7647715.107 7   5959256.702 6  21860099.567    21860106.685          21.000
        18.000
   3984512.326 6   3104818.264 6  20776387.700    20776394.407          19.000
        20.750
  -3435712.222 5  -2677163.546 6  23131996.755    23132006.583          11.750
        12.500
  -3299836.903 5  -2562001.987 5  23678571.677    23678579.653          10.000
         9.000
   6320450.403 5   4927908.976 5  23502672.099    23502680.653          10.750
        11.000
  16027014.783 5  12488570.600 5  22734260.638    22734269.692          11.750
        11.750
 99  3  2 20 15 15.0010000  0  6G 2G 7G 4G 9G26G27
   7679457.194 7   5983990.781 6  21866139.966    21866147.091          21.250
        18.250
   4014287.282 6   3128019.526 6  20782053.575    20782060.271          19.000
        20.500
  -3466067.389 5  -2700816.806 6  23126220.317    23126230.126          11.750
        12.500
  -3325736.275 5  -2582183.280 5  23673642.974    23673651.165          10.000
         9.250
   6360445.574 5   4959074.011 5  23510283.005    23510291.669          10.750
        10.750
  16095240.601 5  12541733.501 5  22747243.388    22747252.454          11.750
        11.500
 99  3  2 20 15 30.0010000  0  6G 2G 7G 4G 9G26G27
   7711230.761 7   6008749.385 6  21872186.317    21872193.478          21.250
        18.250
   4044144.363 6   3151284.790 6  20787735.153    20787741.907          19.250
        20.750
  -3496393.380 6  -2724447.338 6  23120449.317    23120459.157          12.000
        12.500
  -3351588.994 5  -2602328.191 5  23668723.263    23668731.329          10.000
         9.250
   6400534.431 5   4990312.043 5  23517911.864    23517920.427          10.750
        10.750
  16163543.428 5  12594956.410 5  22760240.989    22760250.251          11.750
        11.500
 99  3  2 20 15 45.0010000  0  6G 2G 7G 4G 9G26G27
   7743040.571 7   6033536.232 6  21878239.286    21878246.509          21.250
        18.250
   4074086.328 6   3174616.188 6  20793432.942    20793439.685          19.250
        21.000
  -3526682.414 6  -2748049.063 6  23114685.442    23114695.091          12.250
        12.750
  -3377389.132 5  -2622432.162 5  23663813.700    23663821.813          10.000
         9.250
   6440718.142 5   5021623.995 5  23525558.552    23525567.149          10.750
        10.750
  16231929.853 6  12648244.455 5  22773254.591    22773263.673          12.000
        11.500
 99  3  2 20 16  0.0010000  0  6G 2G 7G 4G 9G26G27
   7774886.804 7   6058351.461 6  21884299.505    21884306.802          21.250
        18.250
   4104112.188 6   3198012.966 6  20799146.794    20799153.396          19.500
        20.750
  -3556935.577 6  -2771622.841 6  23108928.302    23108938.079          12.250
        12.500
  -3403136.597 5  -2642495.061 5  23658913.747    23658922.192           9.750
         9.250
   6480990.744 5   5053005.199 5  23533222.317    23533230.798          11.000
        11.000
  16300397.524 5  12701595.809 5  22786283.786    22786292.919          11.750
        11.500
 99  3  2 20 16 15.0010000  0  6G 2G 7G 4G 9G26G27
   7806772.298 7   6083197.287 6  21890367.153    21890374.376          21.500
        18.000
   4134224.028 6   3221476.739 6  20804876.958    20804883.583          19.250
        21.000
  -3587148.795 6  -2795165.483 6  23103178.786    23103188.501          12.250
        12.750
  -3428831.753 5  -2662517.211 5  23654024.419    23654032.446          10.000
         9.250
   6521350.499 5   5084454.332 5  23540902.661    23540910.942          11.000
        10.750
  16368941.776 5  12755006.839 5  22799327.216    22799336.388          11.750
        11.250
 99  3  2 20 16 30.0010000  0  6G 2G 7G 4G 9G26G27
   7838703.642 7   6108078.837 6  21896443.591    21896450.540          21.500
        18.000
   4164427.586 6   3245011.977 6  20810624.341    20810631.017          19.500
        21.000
  -3617312.667 6  -2818669.679 6  23097438.575    23097448.263          12.250
        12.750
  -3454469.891 5  -2682494.953 5  23649145.685    23649153.509          10.000
         9.000
   6561802.539 5   5115975.371 5  23548600.505    23548608.919          10.750
        10.750
  16437565.834 5  12808480.055 5  22812385.825    22812395.239          11.500
        11.500
 99  3  2 20 16 45.0010000  0  6G 2G 7G 4G 9G26G27
   7870685.321 7   6132999.614 6  21902529.606    21902536.610          21.500
        18.000
   4194727.468 6   3268622.279 6  20816390.372    20816397.071          19.500
        21.250
  -3647420.895 6  -2842130.517 6  23091709.271    23091718.938          12.500
        13.000
  -3480050.333 5  -2702427.712 5  23644277.778    23644285.782          10.000
         9.000
   6602349.736 5   5147570.558 5  23556316.333    23556324.810          10.750
        11.000
  16506272.074 5  12862017.316 5  22825460.427    22825469.739          11.500
        11.250
 99  3  2 20 17  0.0010000  0  6G 2G 7G 4G 9G26G27
   7902712.866 7   6157956.121 6  21908624.474    21908631.446          21.750
        18.000
   4225115.404 6   3292301.186 6  20822173.060    20822179.657          19.500
        21.250
  -3677476.138 6  -2865550.082 6  23085989.872    23085999.407          12.500
        13.000
  -3505580.247 5  -2722321.107 5  23639419.817    23639427.575          10.250
         8.750
   6642988.700 5   5179237.251 5  23564049.716    23564058.044          10.750
        11.000
  16575053.929 5  12915613.474 5  22838549.192    22838558.603          11.250
        11.250
 99  3  2 20 17 15.0010000  0  6G 2G 7G 4G 9G26G27
   7934780.228 7   6182943.663 6  21914726.716    21914733.681          21.750
        18.000
   4255579.383 6   3316039.349 6  20827970.075    20827976.657          19.750
        21.250
  -3707488.443 6  -2888936.178 6  23080278.614    23080288.185          12.500
        13.000
  -3531068.601 5  -2742182.119 5  23634569.411    23634577.396          10.000
         9.000
   6683711.107 5   5210968.960 5  23571798.919    23571807.212          10.750
        10.750
  16643901.370 5  12969260.764 5  22851650.591    22851659.931          11.250
        11.250
 99  3  2 20 17 30.0010000  0  6G 2G 7G 4G 9G26G27
   7966896.853 7   6207969.585 6  21920838.302    21920845.216          21.750
        17.750
   4286123.175 6   3339839.704 6  20833782.388    20833789.024          19.750
        21.250
  -3737452.853 6  -2912284.948 6  23074576.450    23074585.880          12.500
        13.000
  -3556508.959 5  -2762005.734 5  23629728.075    23629736.091           9.750
         9.000
   6724522.793 5   5242770.237 5  23579565.067    23579573.442          10.500
        10.750
  16712820.676 5  13022964.032 5  22864765.403    22864774.731          11.250
        11.000
 99  3  2 20 17 45.0010000  0  6G 2G 7G 4G 9G26G27
   7999057.136 7   6233029.529 6  21926958.005    21926964.997          21.750
        18.000
   4316742.927 6   3363699.247 6  20839609.224    20839615.821          19.750
        21.250
  -3767374.352 6  -2935600.294 6  23068882.474    23068891.935          12.500
        13.000
  -3581905.356 5  -2781795.094 5  23624895.489    23624903.438          10.000
         9.000
   6765420.323 5   5274638.402 5  23587347.583    23587356.247          10.500
        11.000
  16781805.967 5  13076718.722 5  22877892.958    22877902.259          11.250
        11.000
 99  3  2 20 18  0.0010000  0  6G 2G 7G 4G 9G26G27
   8031264.441 7   6258126.117 6  21933086.864    21933093.970          21.750
        17.750
   4347443.760 6   3387621.976 6  20845451.349    20845457.849          19.750
        21.250
  -3797250.448 6  -2958880.253 6  23063197.161    23063206.653          12.750
        13.000
  -3607255.068 5  -2801548.077 5  23620071.380    23620079.548          10.000
         9.250
   6806408.433 5   5306577.152 5  23595147.075    23595155.833          10.500
        11.000
  16850855.840 5  13130523.746 5  22891032.786    22891042.239          11.250
        11.000
 99  3  2 20 18 15.0010000  0  6G 2G 7G 4G 9G26G27
   8063517.112 7   6283258.047 6  21939224.435    21939231.481          21.750
        17.750
   4378224.583 7   3411607.031 6  20851308.896    20851315.427          20.000
        21.250
  -3827081.562 6  -2982125.170 6  23057520.521    23057529.837          12.750
        13.000
  -3632557.648 5  -2821264.324 5  23615256.239    23615264.493          10.000
         9.500
   6847490.156 5   5338588.852 5  23602964.755    23602973.454          10.250
        11.000
  16919966.561 5  13184376.182 5  22904184.239    22904193.505          11.250
        10.750
 99  3  2 20 18 30.0010000  0  6G 2G 7G 4G 9G26G27
   8095808.452 7   6308420.112 6  21945369.200    21945376.325          21.500
        17.750
   4409079.789 7   3435650.044 6  20857180.427    20857186.938          20.000
        21.250
  -3856870.405 6  -3005337.156 6  23051851.833    23051861.165          12.750
        13.000
  -3657816.119 5  -2840946.206 5  23610449.786    23610458.106          10.250
         9.500
   6888665.832 5   5370673.758 5  23610800.325    23610809.013          10.000
        11.000
  16989135.775 5  13238274.187 5  22917346.638    22917355.915          11.000
        10.750
 99  3  2 20 18 45.0010000  0  6G 2G 7G 4G 9G26G27
   8128134.892 7   6333609.528 6  21951520.731    21951527.810          21.500
        17.750
   4440005.382 7   3459747.909 6  20863065.255    20863071.856          20.000
        21.250
  -3886619.696 6  -3028518.311 6  23046190.575    23046199.954          12.500
        13.000
  -3683033.338 5  -2860595.935 5  23605651.161    23605659.185          10.500
         9.750
   6929933.905 5   5402830.655 5  23618653.388    23618662.255          10.000
        11.000
  17058362.821 5  13292217.266 5  22930520.271    22930529.669          11.000
        10.500
 99  3  2 20 19  0.0010000  0  6G 2G 7G 4G 9G26G27
   8160492.983 7   6358823.607 6  21957678.208    21957685.333          21.250
        17.750
   4470995.965 7   3483896.410 6  20868962.614    20868969.052          20.250
        21.250
  -3916332.370 6  -3051670.936 6  23040536.356    23040545.720          12.750
        13.000
  -3708209.291 5  -2880213.523 5  23600860.255    23600868.298          10.250
         9.500
   6971291.184 5   5435057.077 5  23626523.349    23626532.106           9.750
        10.750
  17127642.748 5  13346201.538 5  22943703.817    22943713.228          11.000
        10.750
 99  3  2 20 19 15.0010000  0  6G 2G 7G 4G 9G26G27
   8192880.642 7   6384060.727 6  21963841.419    21963848.646          21.000
        17.750
   4502049.186 7   3508093.726 6  20874871.841    20874878.271          20.250
        21.250
  -3946011.990 6  -3074797.811 6  23034888.513    23034897.755          12.750
        13.000
  -3733339.755 5  -2899795.658 5  23596078.021    23596086.298          10.000
         9.750
   7012734.820 5   5467350.780 5  23634409.646    23634418.618           9.750
        10.750
  17196971.863 5  13400224.149 5  22956896.755    22956906.114          11.000
        10.750
 99  3  2 20 19 30.0010000  0  6G 2G 7G 4G 9G26G27
   8225296.738 7   6409320.001 6  21970009.974    21970017.196          21.000
        17.750
   4533165.952 7   3532340.549 6  20880793.153    20880799.751          20.250
        21.250
  -3975658.881 6  -3097899.179 6  23029246.724    23029256.067          12.750
        13.000
  -3758423.895 5  -2919341.705 5  23591304.521    23591312.860          10.000
         9.750
   7054260.196 5   5499708.177 5  23642311.731    23642320.622           9.750
        10.750
  17266349.426 5  13454284.516 5  22970099.036    22970108.454          11.000
        10.500
 99  3  2 20 19 45.0010000  0  6G 2G 7G 4G 9G26G27
   8257744.378 7   6434603.856 6  21976184.638    21976191.759          21.000
        17.750
   4564354.901 7   3556643.623 6  20886728.271    20886734.720          20.250
        21.000
  -4005264.438 6  -3120968.353 6  23023612.942    23023622.161          12.750
        13.250
  -3783455.820 5  -2938847.059 5  23586541.310    23586549.411          10.500
         9.750
   7095872.522 5   5532133.331 5  23650230.521    23650239.196           9.750
        11.000
  17335783.206 5  13508388.676 5  22983311.927    22983321.302          11.000
        10.750
 99  3  2 20 20  0.0010000  0  6G 2G 7G 4G 9G26G27
   8290223.925 7   6459912.574 6  21982365.325    21982372.384          20.750
        17.500
   4595615.580 7   3581002.591 6  20892676.903    20892683.407          20.000
        21.000
  -4034824.328 6  -3144001.938 6  23017987.833    23017997.079          12.750
        13.250
  -3808436.153 5  -2958312.217 5  23581787.192    23581795.462          10.500
         9.750
   7137572.809 5   5564627.002 5  23658165.888    23658174.751           9.500
        11.000
  17405272.843 5  13562536.372 5  22996535.044    22996544.599          11.000
        10.500
 99  3  2 20 20 15.0010000  0  6G 2G 7G 4G 9G26G27
   8322736.200 7   6485246.793 6  21988552.247    21988559.286          20.500
        17.750
   4626944.210 7   3605414.509 6  20898638.638    20898645.146          20.000
        21.000
  -4064337.644 6  -3166999.229 6  23012371.536    23012380.735          12.500
        13.250
  -3833366.376 5  -2977738.332 5  23577043.435    23577051.544          10.750
         9.750
   7179359.359 5   5597187.936 5  23666117.747    23666126.353           9.750
        11.250
  17474819.560 5  13616728.538 5  23009769.685    23009779.271          10.750
        10.750
 99  3  2 20 20 30.0010000  0  6G 2G 7G 4G 9G26G27
   8355296.929 7   6510618.775 6  21994748.263    21994755.243          21.000
        17.750
   4658354.086 7   3629889.733 6  20904615.731    20904622.228          20.250
        20.750
  -4093790.575 6  -3189949.465 6  23006766.817    23006775.958          12.500
        13.250
  -3858234.059 5  -2997115.700 5  23572311.466    23572319.071          11.250
         9.250
   7221245.614 5   5629826.530 5  23674088.450    23674097.282           9.500
        11.250
  17544442.446 5  13670980.046 5  23023018.622    23023028.122          10.750
        10.750
 99  3  2 20 20 45.0010000  0  6G 2G 7G 4G 9G26G27
   8387885.517 7   6536012.454 6  22000949.692    22000956.759          20.500
        17.500
   4689824.152 7   3654411.854 6  20910604.239    20910610.755          20.000
        20.500
  -4123207.425 6  -3212871.600 6  23001168.731    23001177.974          12.500
        13.250
  -3883062.921 5  -3016462.830 5  23567586.966    23567594.271          11.500
         9.250
   7263204.879 5   5662522.027 5  23682072.958    23682082.110           9.500
        11.250
  17614120.102 5  13725274.244 5  23036277.903    23036287.474          10.750
        11.000
 99  3  2 20 21  0.0010000  0  6G 2G 7G 4G 9G26G27
   8420512.901 7   6561436.378 6  22007158.427    22007165.685          20.250
        17.500
   4721364.527 6   3678988.771 6  20916606.224    20916612.685          19.750
        20.750
  -4152579.736 6  -3235759.016 6  22995579.403    22995588.481          12.250
        13.250
  -3907841.175 5  -3035770.522 5  23562871.567    23562879.188          11.250
         9.500
   7305243.302 5   5695279.193 5  23690072.544    23690081.755           9.000
        11.250
  17683862.067 5  13779618.546 5  23049549.349    23049558.931          10.500
        11.000
 99  3  2 20 21 15.0010000  0  6G 2G 7G 4G 9G26G27
   8453173.275 7   6586886.002 6  22013373.466    22013380.731          20.250
        17.750
   4752970.948 6   3703617.147 6  20922620.638    20922627.165          19.750
        20.750
  -4181915.058 6  -3258617.614 6  22989997.185    22990006.110          12.500
        13.250
  -3932575.156 5  -3055043.714 5  23558164.911    23558172.806          11.500
        10.000
   7347354.437 5   5728093.031 5  23698086.099    23698095.306           9.250
        11.500
  17753664.509 5  13834009.984 5  23062832.505    23062842.056          10.750
        11.000
 99  3  2 20 21 30.0010000  0  6G 2G 7G 4G 9G26G27
   8485874.626 7   6612367.550 6  22019596.333    22019603.614          20.250
        18.000
   4784652.743 6   3728304.259 6  20928649.325    20928655.841          19.750
        20.500
  -4211203.880 6  -3281439.987 6  22984423.614    22984432.606          12.500
        13.250
  -3957261.404 5  -3074279.726 5  23553467.216    23553474.896          11.500
         9.750
   7389545.771 5   5760969.347 5  23706114.677    23706123.903           9.250
        11.000
  17823537.794 5  13888456.615 5  23076129.083    23076138.638          11.000
        11.000
 99  3  2 20 21 45.0010000  0  6G 2G 7G 4G 9G26G27
   8518618.442 7   6637882.192 6  22025827.263    22025834.649          20.000
        17.750
   4816410.111 6   3753050.258 6  20934692.614    20934699.185          19.500
        20.500
  -4240445.233 6  -3304225.366 6  22978858.935    22978868.153          12.500
        13.250
  -3981901.703 6  -3093479.920 5  23548778.372    23548785.931          12.250
         9.500
   7431817.939 5   5793908.668 5  23714158.935    23714168.204           9.000
        11.500
  17893484.916 5  13942960.779 5  23089439.419    23089449.103          10.750
        11.000
 99  3  2 20 22  0.0010000  0  6G 2G 7G 4G 9G26G27
   8551406.290 7   6663431.142 6  22032066.606    22032073.938          20.000
        17.750
   4848243.928 6   3777855.826 6  20940750.521    20940757.048          19.500
        20.500
  -4269638.106 6  -3326972.971 6  22973303.677    22973312.716          12.500
        13.250
  -4006493.735 6  -3112642.509 5  23544098.716    23544106.306          12.250
         9.500
   7474173.265 5   5826912.786 5  23722218.833    23722228.169           9.000
        11.500
  17963508.060 5  13997524.185 5  23102764.560    23102774.274          10.500
        10.750
 99  3  2 20 22 15.0010000  0  6G 2G 7G 4G 9G26G27
   8584238.903 7   6689014.971 6  22038314.544    22038321.853          20.000
        17.750
   4880154.326 6   3802721.071 6  20946822.817    20946829.403          19.500
        20.500
  -4298785.256 6  -3349684.947 6  22967757.106    22967765.997          12.500
        13.250
  -4031034.450 6  -3131765.098 5  23539428.802    23539436.099          12.000
         9.500
   7516612.217 5   5859982.053 5  23730294.606    23730303.997           9.000
        11.500
  18033605.286 5  14052145.311 5  23116103.661    23116113.411          10.250
        11.000
 99  3  2 20 22 30.0010000  0  6G 2G 7G 4G 9G26G27
   8617101.830 7   6714622.433 6  22044568.075    22044575.423          20.000
        17.750
   4912132.618 6   3827639.217 6  20952908.052    20952914.591          19.250
        20.750
  -4327900.869 6  -3372372.345 6  22962216.403    22962225.599          12.500
        13.250
  -4055532.639 6  -3150854.576 5  23534766.841    23534774.411          12.000
         9.500
   7559124.660 5   5893108.596 5  23738384.692    23738393.966           9.250
        11.500
  18103764.857 5  14106815.027 5  23129454.763    23129464.313          10.250
        10.750
 99  3  2 20 22 45.0010000  0  6G 2G 7G 4G 9G26G27
   8649999.870 7   6740257.237 6  22050828.380    22050835.755          20.000
        17.750
   4944189.318 6   3852618.468 6  20959008.255    20959014.837          19.250
        20.750
  -4356979.888 6  -3395031.236 6  22956682.896    22956691.841          12.500
        13.000
  -4079978.998 5  -3169903.653 5  23530114.599    23530122.599          11.500
         9.750
   7601717.370 5   5926297.669 5  23746490.021    23746499.169           9.000
        11.500
  18173990.687 5  14161536.355 5  23142818.271    23142828.028          10.000
        10.750
 99  3  2 20 23  0.0010000  0  6G 2G 7G 4G 9G26G27
   8682925.771 6   6765913.780 6  22057093.880    22057101.192          19.500
        17.500
   4976316.587 6   3877652.698 6  20965121.825    20965128.587          19.250
        21.000
  -4386027.190 6  -3417665.416 6  22951155.317    22951164.282          12.500
        13.500
  -4104377.698 5  -3188915.603 5  23525471.833    23525479.501          11.750
         9.750
   7644384.868 5   5959545.045 5  23754609.192    23754618.466           9.000
        11.250
  18244273.310 5  14216301.958 5  23156192.567    23156202.376          10.250
        10.750
 99  3  2 20 23 15.0010000  0  6G 2G 7G 4G 9G26G27
   8715889.021 6   6791599.401 6  22063366.716    22063374.149          19.750
        17.500
   5008523.607 6   3902749.070 6  20971250.622    20971257.243          19.250
        20.750
  -4415031.028 6  -3440265.713 6  22945635.997    22945644.884          12.500
        13.250
  -4128720.417 5  -3207883.908 5  23520839.333    23520847.349          11.750
        10.000
   7687135.490 5   5992857.168 5  23762744.396    23762753.880           9.000
        11.750
  18314621.796 5  14271118.865 5  23169579.622    23169589.345          10.250
        11.000
 99  3  2 20 23 30.0010000  0  6G 2G 7G 4G 9G26G27
   8748881.096 6   6817307.496 6  22069644.950    22069652.462          19.750
        17.500
   5040798.169 6   3927898.081 6  20977392.239    20977398.931          18.750
        20.500
  -4443998.128 6  -3462837.396 6  22940123.536    22940132.450          12.750
        13.500
  -4153016.570 5  -3226815.950 5  23516216.005    23516223.868          11.750
        10.000
   7729960.934 5   6026227.585 5  23770893.614    23770903.259           8.500
        11.250
  18385023.321 5  14325977.103 5  23182976.614    23182986.353          10.000
        11.000
 99  3  2 20 23 45.0010000  0  6G 2G 7G 4G 9G26G27
   8781896.007 6   6843033.382 6  22075927.372    22075934.864          19.500
        17.500
   5073133.044 6   3953094.088 6  20983545.216    20983551.981          18.750
        20.750
  -4472933.579 6  -3485384.394 6  22934617.231    22934626.278          12.250
        13.250
  -4177270.571 5  -3245715.133 5  23511600.380    23511608.161          11.750
        10.000
   7772854.094 5   6059650.809 5  23779056.138    23779065.669           8.500
        11.500
  18455467.283 5  14380868.404 5  23196381.677    23196391.462           9.750
        10.750
 99  3  2 20 24  0.0010000  0  6G 2G 7G 4G 9G26G27
   8814932.875 6   6868776.382 6  22082214.146    22082221.599          19.500
        17.500
   5105527.113 6   3978336.218 6  20989709.692    20989716.368          18.750
        21.000
  -4501838.618 6  -3507907.729 6  22929116.677    22929125.567          12.500
        13.500
  -4201481.746 5  -3264580.951 5  23506993.419    23507001.204          11.750
        10.250
   7815813.706 5   6093125.780 5  23787231.278    23787240.622           8.250
        11.500
  18525951.399 5  14435791.014 5  23209794.427    23209804.263           9.750
        10.750
 99  3  2 20 24 15.0010000  0  6G 2G 7G 4G 9G26G27
   8847998.605 6   6894541.860 6  22088506.364    22088513.923          19.250
        17.500
   5137986.512 6   4003629.252 6  20995886.435    20995893.142          18.750
        21.000
  -4530703.884 6  -3530400.052 6  22923623.653    22923632.657          12.500
        13.250
  -4225642.344 5  -3283407.353 5  23502395.731    23502403.485          11.750
        10.000
   7858847.554 5   6126658.608 5  23795420.153    23795429.763           8.000
        11.500
  18596477.906 5  14490746.642 5  23223215.403    23223225.228          10.000
        10.750
 99  3  2 20 24 30.0010000  0  6G 2G 7G 4G 9G26G27
   8881092.810 6   6920329.539 6  22094803.981    22094811.579          18.750
        17.500
   5170508.193 6   4028970.821 6  21002075.200    21002081.985          18.750
        21.000
  -4559527.491 6  -3552859.922 6  22918138.911    22918147.692          12.500
        13.500
  -4249755.797 5  -3302197.022 5  23497806.966    23497815.071          11.750
        10.500
   7901953.651 5   6160247.729 5  23803622.880    23803632.458           8.000
        11.500
  18667043.134 5  14545732.439 5  23236643.567    23236653.302          10.000
        10.750
 99  3  2 20 24 45.0010000  0  6G 2G 7G 4G 9G26G27
   8914206.510 6   6946132.404 6  22101105.388    22101112.860          19.250
        17.750
   5203080.828 6   4054352.096 6  21008273.653    21008280.446          19.000
        21.000
  -4588314.499 6  -3575291.266 6  22912660.833    22912669.630          12.500
        13.500
  -4273833.133 5  -3320958.548 5  23493225.161    23493233.224          11.750
        10.500
   7945119.963 5   6193883.759 5  23811836.950    23811846.743           8.000
        11.250
  18737640.495 5  14600743.292 5  23250077.888    23250087.708          10.000
        10.750
 99  3  2 20 25  0.0010000  0  6G 2G 7G 4G 9G26G27
   8947353.354 6   6971961.093 6  22107413.130    22107420.517          19.250
        17.750
   5235713.471 6   4079780.130 6  21014483.372    21014490.161          18.750
        21.000
  -4617051.678 6  -3597683.776 6  22907192.099    22907201.024          12.500
        13.500
  -4297865.995 5  -3339685.422 5  23488651.716    23488659.884          11.750
        11.000
   7988351.664 5   6227570.764 5  23820063.599    23820073.563           8.000
        11.500
  18808279.224 5  14655786.360 5  23263520.216    23263529.782          10.000
        10.750
 99  3  2 20 25 15.0010000  0  6G 2G 7G 4G 9G26G27
   8980535.634 6   6997817.399 6  22113727.341    22113734.860          19.250
        17.750
   5268403.837 6   4105253.139 6  21020704.083    21020710.915          18.750
        21.250
  -4645734.433 6  -3620033.878 6  22901734.028    22901742.837          12.250
        13.500
  -4321855.065 5  -3358378.168 5  23484086.802    23484094.735          11.500
        11.000
   8031647.709 5   6261307.893 5  23828302.747    23828312.661           8.250
        11.750
  18878962.730 5  14710864.322 5  23276970.802    23276980.739          10.000
        10.750
 99  3  2 20 25 30.0020000  0  6G 2G 7G 4G 9G26G27
   9013757.773 6   7023704.761 6  22120049.307    22120056.861          18.750
        17.750
   5301156.749 6   4130774.891 6  21026936.799    21026943.607          18.750
        21.000
  -4674364.751 6  -3642343.129 6  22896285.729    22896294.588          12.250
        13.500
  -4345801.792 6  -3377037.919 5  23479529.908    23479538.025          12.000
        11.000
   8075012.973 5   6295098.957 5  23836554.979    23836564.783           8.750
        11.500
  18949696.638 5  14765981.564 5  23290431.057    23290441.002          10.000
        10.750
 99  3  2 20 25 45.0020000  0  6G 2G 7G 4G 9G26G27
   9047010.845 6   7049616.232 6  22126377.189    22126384.873          18.750
        17.500
   5333967.103 6   4156341.397 6  21033180.416    21033187.271          19.000
        21.250
  -4702940.816 6  -3664610.099 6  22890847.893    22890856.740          12.500
        13.500
  -4369704.870 6  -3395663.653 5  23474981.385    23474989.299          12.250
        11.250
   8118443.174 5   6328940.625 5  23844819.518    23844829.408           8.500
        11.250
  19020469.293 5  14821128.985 5  23303898.682    23303908.775           9.750
        10.750
 99  3  2 20 26  0.0020000  0  6G 2G 7G 4G 9G26G27
   9080293.429 6   7075550.697 6  22132710.541    22132718.240          18.500
        17.500
   5366836.681 6   4181954.056 6  21039435.291    21039442.049          18.750
        21.250
  -4731469.035 6  -3686839.792 6  22885419.010    22885427.846          12.250
        13.500
  -4393570.730 6  -3414260.402 5  23470440.025    23470447.885          12.500
        11.250
   8161938.295 5   6362832.890 5  23853096.518    23853106.146           8.750
        10.750
  19091285.115 5  14876310.056 5  23317374.588    23317384.564           9.750
        10.750
 99  3  2 20 26 15.0020000  0  6G 2G 7G 4G 9G26G27
   9113604.361 6   7101507.250 6  22139049.447    22139057.201          18.250
        17.500
   5399765.192 6   4207612.635 6  21045701.314    21045708.068          19.250
        21.250
  -4759949.281 6  -3709032.094 6  22879999.354    22880008.139          12.500
        13.500
  -4417398.804 6  -3432827.706 5  23465905.424    23465913.658          12.250
        11.500
   8205498.171 5   6396775.606 5  23861385.924    23861395.322           9.000
        10.750
  19162146.581 5  14931526.684 5  23330859.158    23330869.154           9.500
        10.750
 99  3  2 20 26 30.0020000  0  6G 2G 7G 4G 9G26G27
   9146943.895 6   7127486.099 6  22145393.783    22145401.471          18.250
        17.500
   5432753.831 6   4233318.062 6  21051978.635    21051985.389          19.000
        21.250
  -4788381.804 6  -3731187.208 6  22874588.752    22874597.623          12.250
        13.500
  -4441188.472 6  -3451365.072 5  23461378.557    23461386.330          12.250
        11.750
   8249123.957 5   6430769.678 5  23869687.830    23869697.061           9.250
        10.500
  19233055.125 5  14986779.998 5  23344352.525    23344362.654           9.500
        10.750
 99  3  2 20 26 45.0020000  0  6G 2G 7G 4G 9G26G27
   9180320.956 6   7153494.183 6  22151745.236    22151753.002          18.250
        17.750
   5465816.641 6   4259081.283 6  21058270.564    21058277.244          19.250
        21.250
  -4816757.688 6  -3753298.198 6  22869188.838    22869197.725          12.250
        13.500
  -4464931.403 5  -3469866.012 5  23456860.033    23456868.209          11.750
        11.750
   8292824.028 5   6464821.640 5  23878003.752    23878012.779           9.750
        10.500
  19304024.209 5  15042080.481 5  23357857.650    23357867.799           9.750
        10.750
 99  3  2 20 27  0.0020000  0  6G 2G 7G 4G 9G26G27
   9213726.988 6   7179524.840 6  22158102.111    22158109.826          18.250
        17.500
   5498945.530 6   4284896.001 6  21064574.846    21064581.537          19.500
        21.250
  -4845090.818 6  -3775375.872 6  22863797.080    22863805.787          12.250
        13.500
  -4488634.373 5  -3488335.817 5  23452349.666    23452357.619          11.750
        11.750
   8336587.955 5   6498923.354 5  23886331.885    23886340.740           9.750
        10.250
  19375042.927 5  15097419.642 5  23371372.236    23371382.275           9.750
        10.750
 99  3  2 20 27 15.0020000  0  6G 2G 7G 4G 9G26G27
   9247163.613 6   7205579.338 6  22164464.893    22164472.600          18.000
        17.750
   5532142.945 6   4310764.110 6  21070892.189    21070898.861          19.500
        21.250
  -4873380.089 6  -3797419.369 6  22858413.775    22858422.549          12.250
        13.750
  -4512294.367 5  -3506772.147 5  23447847.088    23447855.369          11.750
        11.750
   8380421.074 5   6533078.998 5  23894673.080    23894681.943           9.750
        10.000
  19446111.637 5  15152797.744 5  23384896.041    23384906.209           9.500
        10.750
 99  3  2 20 27 30.0020000  0  6G 2G 7G 4G 9G26G27
   9280630.814 6   7231657.658 6  22170833.455    22170841.252          17.750
        17.750
   5565409.289 6   4336685.932 6  21077222.588    21077229.213          19.500
        21.250
  -4901624.255 6  -3819427.715 6  22853039.213    22853047.803          12.500
        13.750
  -4535905.433 5  -3525170.348 6  23443353.994    23443362.182          11.750
        12.000
   8424328.781 5   6567292.739 5  23903028.588    23903037.295          10.250
         9.750
  19517230.521 5  15208214.976 5  23398429.588    23398439.943           9.250
        10.750
 99  3  2 20 27 45.0020000  0  6G 2G 7G 4G 9G26G27
   9314118.520 6   7257751.963 6  22177206.002    22177213.807          17.750
        17.750
   5598736.715 6   4362655.350 6  21083564.322    21083570.920          19.500
        21.250
  -4929829.844 6  -3841406.010 6  22847671.619    22847680.494          12.250
        14.000
  -4559472.920 5  -3543534.566 5  23438869.244    23438877.326          11.750
        11.750
   8468306.311 5   6601560.907 5  23911397.158    23911406.049          10.000
         9.500
  19588390.506 5  15263664.208 5  23411971.033    23411981.260           9.500
        10.750
 99  3  2 20 28  0.0020000  0  6G 2G 7G 4G 9G26G27
   9347629.909 6   7283864.716 6  22183583.033    22183590.928          17.500
        18.000
   5632124.854 7   4388672.070 6  21089918.275    21089924.881          20.000
        21.250
  -4957993.401 6  -3863351.555 6  22842312.361    22842321.014          12.500
        13.750
  -4582991.421 5  -3561860.646 5  23434393.650    23434401.740          11.500
        11.750
   8512353.211 5   6635883.126 5  23919779.182    23919788.025          10.500
         9.500
  19659594.559 5  15319147.782 5  23425520.721    23425531.107           9.250
        11.000
 99  3  2 20 28 15.0020000  0  6G 2G 7G 4G 9G26G27
   9381179.948 6   7310007.592 6  22189967.127    22189974.994          18.000
        17.500
   5665581.785 6   4414742.399 6  21096284.885    21096291.498          19.750
        21.500
  -4986103.036 5  -3885255.059 6  22836963.322    22836971.854          11.500
        12.250
  -4606448.056 5  -3580138.511 5  23429930.080    23429938.182          11.750
        11.750
   8556475.979 5   6670264.469 5  23928175.354    23928184.143          10.500
         9.500
  19730854.451 5  15374674.874 5  23439081.283    23439091.533           8.250
         9.250
 99  3  2 20 28 30.0020000  0  6G 2G 7G 4G 9G26G27
   9414769.455 6   7336181.224 6  22196359.182    22196367.104          17.750
        17.750
   5699103.723 7   4440863.391 6  21102663.932    21102670.490          20.000
        21.250
  -5014157.067 6  -3907115.273 6  22831624.611    22831633.225          12.500
        13.750
  -4629842.706 5  -3598368.073 6  23425478.182    23425486.627          11.750
        12.500
   8600673.579 5   6704704.125 5  23936585.861    23936594.764          10.250
         9.250
  19802166.472 5  15430242.574 5  23452651.541    23452662.041           9.250
        11.000
 99  3  2 20 28 45.0020000  0  6G 2G 7G 4G 9G26G27
   9448398.417 6   7362385.598 6  22202758.424    22202766.479          17.250
        17.750
   5732685.608 7   4467031.076 6  21109054.252    21109060.709          20.000
        21.000
  -5042157.426 6  -3928933.654 6  22826296.307    22826304.764          12.500
        13.500
  -4653178.244 5  -3616551.579 6  23421037.729    23421045.865          11.750
        12.500
   8644943.749 5   6739200.324 5  23945010.221    23945018.928          10.250
         8.500
  19873526.040 5  15485847.324 5  23466230.814    23466241.217           9.250
        10.750
 99  3  2 20 29  0.0020000  0  6G 2G 7G 4G 9G26G27
   9482064.857 6   7388619.173 6  22209165.166    22209173.111          17.500
        17.750
   5766319.780 7   4493239.508 6  21115454.424    21115460.877          20.000
        21.250
  -5070105.116 6  -3950710.992 6  22820978.002    22820986.494          12.750
        13.750
  -4676455.822 5  -3634689.917 6  23416608.088    23416616.232          11.750
        12.500
   8689283.672 5   6773750.866 5  23953448.041    23953456.791          10.500
         8.250
  19944929.825 5  15541486.527 5  23479818.572    23479829.064           9.000
        11.000
 99  3  2 20 29 15.0020000  0  6G 2G 7G 4G 9G26G27
   9515778.848 6   7414889.802 6  22215580.736    22215588.666          17.500
        17.750
   5800011.869 7   4519493.078 6  21121865.908    21121872.357          20.000
        21.000
  -5097987.610 6  -3972437.526 6  22815672.049    22815680.463          12.750
        13.750
  -4699663.943 5  -3652774.132 6  23412191.447    23412199.986          11.750
        12.500
   8733706.012 5   6808365.643 5  23961901.432    23961910.088          10.500
         8.500
  20016387.841 5  15597168.001 5  23493416.760    23493427.275           9.250
        10.750
 99  3  2 20 29 30.0020000  0  6G 2G 7G 4G 9G26G27
   9549536.211 6   7441194.224 6  22222004.572    22222012.463          17.750
        18.000
   5833756.970 7   4545787.957 6  21128287.400    21128293.869          20.000
        21.000
  -5125804.355 6  -3994112.836 6  22810378.838    22810386.982          12.750
        13.750
  -4722808.259 6  -3670808.625 6  23407787.322    23407795.580          12.000
        12.500
   8778208.027 5   6843042.494 5  23970369.994    23970378.279          10.500
         8.250
  20087894.998 5  15652887.751 5  23507024.197    23507034.639           9.250
        10.750
 99  3  2 20 29 45.0020000  0  6G 2G 7G 4G 9G26G27
   9583340.057 6   7467534.871 6  22228437.025    22228444.982          17.750
        17.750
   5867555.017 7   4572124.088 6  21134719.189    21134725.650          20.250
        21.250
  -5153554.995 6  -4015736.638 6  22805097.971    22805106.229          12.750
        13.750
  -4745889.487 6  -3688793.960 6  23403395.049    23403403.186          12.500
        12.250
   8822789.675 5   6877781.399 5  23978853.611    23978862.174          10.250
         8.500
  20159451.658 5  15708646.078 5  23520640.947    23520651.572           9.000
        10.750
 99  3  2 20 30  0.0020000  0  6G 2G 7G 4G 9G26G27
   9617191.973 6   7493912.972 6  22234878.994    22234886.896          17.750
        18.000
   5901406.314 7   4598501.712 6  21141160.939    21141167.299          20.250
        20.750
  -5181240.517 6  -4037309.691 6  22799829.510    22799837.729          13.000
        13.500
  -4768911.608 6  -3706733.239 6  23399014.197    23399022.283          12.500
        12.500
   8867447.870 5   6912579.942 5  23987352.010    23987360.182          10.500
         8.250
  20231059.663 5  15764444.422 5  23534267.744    23534278.088           9.000
        10.500
 99  3  2 20 30 15.0020000  0  6G 2G 7G 4G 9G26G27
   9651098.065 6   7520333.294 6  22241331.111    22241338.986          18.000
        17.750
   5935316.189 7   4624924.979 6  21147613.650    21147620.061          20.250
        21.000
  -5208859.563 6  -4058830.952 6  22794573.705    22794582.088          12.750
        13.750
  -4791871.173 6  -3724623.783 6  23394644.986    23394653.283          12.750
        12.250
   8912182.877 5   6947438.365 5  23995864.588    23995872.967           9.500
         8.000
  20302719.830 5  15820283.402 5  23547904.150    23547914.756           8.750
        10.500
 99  3  2 20 30 30.0020000  0  6G 2G 7G 4G 9G26G27
   9685057.774 6   7546795.388 6  22247793.424    22247801.299          18.000
        18.000
   5969291.892 7   4651399.546 6  21154079.025    21154085.467          20.000
        21.000
  -5236407.922 6  -4080297.138 6  22789331.307    22789339.514          12.750
        14.000
  -4814767.138 6  -3742464.755 6  23390288.025    23390296.189          12.500
        12.250
   8957000.481 5   6982361.128 5  24004393.197    24004401.541           9.750
         8.250
  20374435.331 5  15876165.504 5  23561551.025    23561561.881           8.500
        10.500
 99  3  2 20 30 45.0020000  0  6G 2G 7G 4G 9G26G27
   9719064.086 6   7573293.797 6  22254264.783    22254272.572          18.250
        18.000
   6003328.778 7   4677921.785 6  21160556.057    21160562.498          20.500
        21.000
  -5263891.002 6  -4101712.457 6  22784101.424    22784109.717          13.000
        13.750
  -4837603.514 6  -3760259.306 6  23385942.299    23385950.654          12.750
        12.750
   9001897.013 5   7017345.399 5  24012936.682    24012945.244           9.250
         8.250
  20446201.261 5  15932086.890 5  23575207.822    23575218.303           8.750
        10.000
 99  3  2 20 31  0.0020000  0  6G 2G 7G 4G 9G26G27
   9753116.023 6   7599827.762 6  22260744.689    22260752.646          18.750
        18.250
   6037431.738 7   4704495.506 6  21167045.580    21167052.092          20.250
        21.000
  -5291309.996 6  -4123077.836 6  22778883.557    22778891.791          13.000
        13.500
  -4860377.452 6  -3778005.192 6  23381608.502    23381616.541          12.750
        12.000
   9046872.134 5   7052390.898 5  24021494.924    24021503.432           9.250
         8.000
  20518020.475 5  15988049.811 5  23588874.869    23588885.389           8.750
        10.000
 99  3  2 20 31 15.0020000  0  6G 2G 7G 4G 9G26G27
   9787209.657 6   7626394.218 6  22267232.666    22267240.428          19.250
        18.000
   6071601.823 7   4731121.528 6  21173548.150    21173554.561          20.500
        21.000
  -5318666.056 6  -4144394.175 6  22773677.924    22773686.174          12.750
        13.500
  -4883090.287 6  -3795703.480 5  23377286.369    23377294.283          13.000
        11.750
   9091922.438 5   7087494.985 5  24030067.830    24030076.475           9.500
         8.250
  20589889.827 5  16044051.790 5  23602551.166    23602561.865           8.250
        10.250
 99  3  2 20 31 30.0020000  0  6G 2G 7G 4G 9G26G27
   9821349.437 6   7652996.630 6  22273729.221    22273736.951          19.250
        18.000
   6105846.438 7   4757805.638 6  21180064.533    21180070.982          20.250
        21.000
  -5345959.693 6  -4165661.887 6  22768484.018    22768492.205          12.750
        13.500
  -4905739.082 6  -3813351.848 5  23372976.510    23372984.416          13.000
        11.750
   9137049.522 5   7122658.904 5  24038655.283    24038663.943           9.000
         8.250
  20661811.975 5  16100094.900 5  23616237.424    23616248.412           8.250
        10.250
 99  3  2 20 31 45.0020000  0  6G 2G 7G 4G 9G26G27
   9855526.497 6   7679628.092 6  22280232.994    22280240.701          19.500
        18.000
   6140157.193 7   4784541.283 6  21186593.705    21186600.131          20.250
        21.000
  -5373202.293 6  -4186889.820 6  22763300.002    22763308.123          13.000
        13.500
  -4928331.591 6  -3830956.376 5  23368677.244    23368685.318          12.750
        11.750
   9182240.868 5   7157872.888 5  24047255.018    24047263.686           8.750
         8.500
  20733778.524 5  16156172.629 5  23629932.354    23629943.217           8.000
        10.250
 99  3  2 20 32  0.0020000  0  6G 2G 7G 4G 9G26G27
   9889746.319 6   7706292.872 6  22286744.752    22286752.518          19.750
        18.000
   6174542.061 7   4811334.675 6  21193137.018    21193143.393          20.250
        21.000
  -5400389.722 6  -4208074.768 6  22758126.455    22758134.615          13.000
        13.500
  -4950858.021 6  -3848509.408 5  23364390.658    23364398.705          12.750
        11.750
   9227501.779 5   7193141.082 5  24055867.658    24055876.650           8.250
         8.250
  20805800.461 5  16212293.495 5  23643637.580    23643648.693           8.000
        10.500
 99  3  2 20 32 15.0020000  0  6G 2G 7G 4G 9G26G27
   9924010.688 7   7732992.362 6  22293265.088    22293272.787          20.000
        17.750
   6209006.817 7   4838190.318 6  21199695.385    21199701.717          20.250
        20.750
  -5427518.593 6  -4229214.095 6  22752963.861    22752971.920          12.750
        13.250
  -4973312.473 6  -3866006.348 5  23360117.768    23360125.783          13.000
        11.500
   9272833.263 5   7228464.276 5  24064493.947    24064503.178           8.000
         8.500
  20877881.628 5  16268460.527 5  23657354.393    23657365.342           8.000
        10.250
 99  3  2 20 32 30.0020000  0  6G 2G 7G 4G 9G26G27
   9958306.970 7   7759716.727 6  22299791.486    22299799.100          20.000
        18.000
   6243539.728 7   4865099.067 6  21206266.689    21206273.287          20.250
        21.000
  -5454599.732 6  -4250316.224 6  22747810.346    22747818.459          12.750
        13.250
  -4995704.637 6  -3883454.756 5  23355856.893    23355864.584          13.250
        11.500
   9318224.548 5   7263834.059 5  24073131.439    24073140.830           8.000
         8.750
  20950011.445 5  16324665.459 5  23671080.518    23671091.436           8.000
        10.250
 99  3  2 20 32 45.0020000  0  6G 2G 7G 4G 9G26G27
   9992642.217 7   7786471.445 6  22306325.283    22306332.924          20.000
        17.750
   6278143.772 7   4892063.240 6  21212851.697    21212858.213          20.250
        20.500
  -5481626.021 6  -4271375.606 6  22742667.322    22742675.408          12.750
        13.500
  -5018025.960 6  -3900847.954 5  23351609.150    23351616.713          13.250
        11.250
   9363680.632 5   7299254.342 5  24081781.580    24081791.096           7.750
         9.000
  21022198.304 5  16380914.853 5  23684817.283    23684828.049           8.250
        10.000
 99  3  2 20 33  0.0020000  0  6G 2G 7G 4G 9G26G27
  10027010.328 7   7813251.783 6  22312865.268    22312872.748          20.250
        17.500
   6312808.404 7   4919074.637 6  21219448.158    21219454.639          20.250
        20.500
  -5508608.543 6  -4292400.890 6  22737532.643    22737540.783          12.750
        13.250
  -5040286.136 6  -3918193.517 5  23347373.080    23347380.596          13.250
        11.000
   9409191.668 5   7334717.434 5  24090442.010    24090451.443           7.500
         9.000
  21094430.663 5  16437199.691 5  23698562.760    23698573.529           8.500
        10.000
 99  3  2 20 33 15.0020000  0  6G 2G 7G 4G 9G26G27
  10061419.898 7   7840064.418 6  22319413.338    22319420.896          20.500
        17.750
   6347544.009 7   4946141.329 6  21226058.127    21226064.611          20.000
        20.500
  -5535536.600 6  -4313383.732 6  22732408.416    22732416.631          12.500
        13.500
  -5062479.796 6  -3935487.248 5  23343149.705    23343157.346          13.500
        11.250
   9454765.492 5   7370229.464 5  24099114.768    24099123.846           7.500
         9.000
  21166714.277 5  16493524.462 5  23712317.869    23712328.631           8.250
        10.250
 99  3  2 20 33 30.0020000  0  6G 2G 7G 4G 9G26G27
  10095869.047 7   7866907.891 6  22325968.846    22325976.463          20.500
        17.750
   6382343.545 7   4973257.842 6  21232680.189    21232686.650          20.000
        20.500
  -5562413.298 6  -4334326.552 6  22727293.908    22727302.197          12.500
        13.500
  -5084612.189 6  -3952733.238 5  23338938.080    23338945.678          13.250
        11.250
   9500397.345 5   7405786.682 5  24107797.916    24107807.525           7.500
         9.000
  21239044.496 5  16549885.570 5  23726082.229    23726092.771           8.250
        10.000
 99  3  2 20 33 45.0020000  0  6G 2G 7G 4G 9G26G27
  10130363.612 7   7893786.763 6  22332533.018    22332540.377          21.000
        17.500
   6417211.730 7   5000427.851 6  21239315.463    21239321.982          20.000
        20.250
  -5589231.400 6  -4355223.714 6  22722190.432    22722198.729          12.750
        13.500
  -5106677.344 6  -3969926.832 5  23334739.299    23334746.900          14.000
        11.500
   9546092.861 4   7441393.541 5  24116493.643    24116503.271           7.250
         9.250
  21311427.153 5  16606287.519 5  23739856.096    23739866.857           8.250
        10.000
 99  3  2 20 34  0.0020000  0  6G 2G 7G 4G 9G26G27
  10164892.972 7   7920692.740 6  22339103.736    22339111.236          20.750
        17.500
   6452138.268 7   5027643.315 6  21245961.729    21245968.225          20.000
        20.500
  -5615995.866 6  -4376079.088 6  22717097.432    22717105.541          12.750
        13.500
  -5128684.203 6  -3987075.000 5  23330551.439    23330558.986          14.000
        11.500
   9591842.174 4   7477042.298 5  24125199.596    24125209.131           7.250
         9.250
  21383852.481 5  16662722.726 5  23753638.229    23753648.947           8.250
         9.750
 99  3  2 20 34 15.0020000  0  6G 2G 7G 4G 9G26G27
  10199459.661 7   7947627.807 6  22345681.439    22345689.041          20.500
        17.250
   6487123.937 7   5054904.869 6  21252619.260    21252625.709          20.000
        20.250
  -5642703.375 6  -4396890.081 6  22712015.025    22712023.232          12.750
        13.750
  -5150633.078 6  -4004177.997 5  23326374.518    23326382.076          13.500
        11.250
   9637648.348 5   7512735.356 5  24133916.064    24133925.689           7.500
         9.000
  21456320.377 5  16719191.091 5  23767428.580    23767439.244           8.250
         9.750
 99  3  2 20 34 30.0020000  0  6G 2G 7G 4G 9G26G27
  10234071.235 7   7974597.849 6  22352267.916    22352275.451          21.000
        17.250
   6522172.127 7   5082215.132 6  21259288.705    21259295.123          20.000
        20.000
  -5669344.095 6  -4417649.027 6  22706945.432    22706953.607          12.750
        13.750
  -5172518.978 6  -4021231.911 5  23322209.830    23322217.232          13.750
        11.250
   9683517.655 4   7548477.617 5  24142644.807    24142654.197           7.250
         9.250
  21528832.537 5  16775693.956 5  23781227.166    23781238.115           8.250
         9.500
 99  3  2 20 34 45.0020000  0  6G 2G 7G 4G 9G26G27
  10268711.324 7   8001590.112 6  22358859.564    22358867.166          21.000
        17.250
   6557263.082 7   5109558.727 6  21265966.111    21265972.580          20.000
        20.000
  -5695934.851 6  -4438369.031 6  22701885.322    22701893.564          13.000
        14.000
  -5194359.856 6  -4038250.738 5  23318053.596    23318061.104          14.000
        11.500
   9729434.594 4   7584257.011 5  24151382.369    24151392.311           7.250
         9.750
  21601370.293 5  16832216.756 5  23795030.760    23795041.838           8.000
         9.750
 99  3  2 20 35  0.0020000  0  6G 2G 7G 4G 9G26G27
  10303384.773 7   8028608.368 6  22365457.854    22365465.432          20.500
        17.000
   6592403.113 6   5136940.566 6  21272653.096    21272659.564          19.750
        20.000
  -5722468.686 6  -4459044.696 6  22696836.119    22696844.123          13.000
        14.000
  -5216151.475 6  -4055231.195 5  23313906.689    23313914.236          14.000
        11.500
   9775405.751 5   7620078.625 5  24160130.447    24160140.240           7.500
         9.750
  21673936.115 5  16888761.442 5  23808839.650    23808850.615           8.000
         9.750
 99  3  2 20 35 15.0020000  0  6G 2G 7G 4G 9G26G27
  10338096.488 7   8055656.440 6  22372063.221    22372070.729          20.500
        16.500
   6627600.248 6   5164366.888 6  21279351.025    21279357.432          19.750
        20.000
  -5748936.482 6  -4479668.884 6  22691799.455    22691807.580          13.000
        14.000
  -5237888.694 6  -4072169.257 5  23309770.346    23309777.670          14.000
        11.250
   9821439.663 5   7655949.176 5  24168890.338    24168900.240           7.500
         9.750
  21746535.624 5  16945332.360 5  23822654.979    23822665.865           7.750
         9.750
 99  3  2 20 35 30.0020000  0  6G 2G 7G 4G 9G26G27
  10372840.335 7   8082729.550 6  22378674.869    22378682.295          20.500
        16.500
   6662843.931 6   5191829.491 6  21286057.635    21286064.197          19.750
        20.250
  -5775342.390 6  -4500244.860 6  22686774.557    22686782.822          13.000
        14.000
  -5259574.972 6  -4089067.614 5  23305643.291    23305650.799          14.000
        11.500
   9867527.821 5   7691861.975 5  24177660.768    24177670.486           7.500
         9.750
  21819166.414 5  17001927.664 5  23836476.166    23836487.279           7.750
         9.750
 99  3  2 20 35 45.0020000  0  6G 2G 7G 4G 9G26G27
  10407618.319 7   8109829.255 6  22385292.877    22385300.393          20.250
        16.750
   6698135.515 6   5219329.421 6  21292773.299    21292779.893          19.500
        20.250
  -5801685.234 6  -4520771.694 6  22681761.588    22681769.705          13.000
        14.250
  -5281205.550 6  -4105922.584 5  23301527.330    23301534.951          14.000
        11.500
   9913673.987 5   7727819.963 5  24186442.369    24186452.014           7.500
         9.750
  21891831.853 5  17058549.956 5  23850304.088    23850315.240           7.750
         9.750
 99  3  2 20 36  0.0020000  0  6G 2G 7G 4G 9G26G27
  10442428.175 7   8136953.804 6  22391916.979    22391924.416          20.250
        16.500
   6733472.275 6   5246864.554 6  21299497.627    21299504.193          19.500
        20.250
  -5827965.041 6  -4541249.395 6  22676760.557    22676768.818          13.000
        14.250
  -5302782.924 6  -4122736.079 5  23297421.213    23297428.787          14.000
        11.500
   9959875.539 5   7763821.119 5  24195234.283    24195243.982           7.750
        10.000
  21964529.850 5  17115197.624 5  23864138.291    23864149.510           7.500
         9.750
 99  3  2 20 36 15.0020000  0  6G 2G 7G 4G 9G26G27
  10477269.391 7   8164102.779 6  22398546.963    22398554.432          20.250
        16.250
   6768852.217 6   5274433.333 6  21306230.338    21306236.877          19.500
        20.000
  -5854182.251 6  -4561678.330 6  22671771.619    22671779.627          13.250
        14.250
  -5324306.858 6  -4139507.946 5  23293325.314    23293332.889          14.000
        11.500
  10006131.888 5   7799864.972 5  24204036.627    24204046.154           7.750
        10.000
  22037261.073 5  17171871.171 5  23877978.377    23877989.646           7.500
         9.500
 99  3  2 20 36 30.0020000  0  6G 2G 7G 4G 9G26G27
  10512150.591 7   8191282.918 6  22405184.650    22405192.057          20.000
        16.250
   6804284.652 6   5302043.011 6  21312972.963    21312979.525          19.500
        20.000
  -5880328.624 6  -4582052.064 6  22666796.127    22666804.170          13.500
        14.000
  -5345766.699 6  -4156229.869 5  23289241.643    23289248.928          14.000
        11.250
  10052454.356 5   7835960.352 5  24212851.525    24212861.240           7.750
        10.000
  22110033.165 5  17228576.570 5  23891826.244    23891837.791           7.500
         9.500
 99  3  2 20 36 45.0020000  0  6G 2G 7G 4G 9G26G27
  10547074.893 7   8218496.635 6  22411830.447    22411837.924          20.000
        16.000
   6839777.508 6   5329699.779 6  21319726.893    21319733.545          19.250
        20.000
  -5906399.219 6  -4602366.754 6  22661834.955    22661843.041          13.500
        14.000
  -5367157.100 6  -4172897.689 5  23285171.283    23285178.686          14.500
        11.500
  10098846.903 5   7872110.330 5  24221679.924    24221689.369           7.750
        10.000
  22182849.357 5  17285316.329 5  23905683.072    23905694.639           7.500
         9.500
 99  3  2 20 37  0.0020000  0  6G 2G 7G 4G 9G26G27
  10582037.856 6   8245740.480 6  22418483.572    22418490.943          19.750
        16.000
   6875331.547 6   5357404.219 6  21326492.713    21326499.342          19.250
        20.000
  -5932396.622 6  -4622624.406 6  22656887.830    22656895.869          13.750
        14.000
  -5388479.251 6  -4189512.315 5  23281113.744    23281120.900          14.500
        11.500
  10145306.361 5   7908312.448 5  24230520.760    24230530.350           8.000
        10.000
  22255709.932 5  17342090.667 5  23919548.307    23919559.400           7.750
         9.250
 99  3  2 20 37 15.0020000  0  6G 2G 7G 4G 9G26G27
  10617040.774 6   8273015.460 6  22425144.580    22425152.092          19.750
        16.000
   6910949.737 6   5385158.647 6  21333270.455    21333277.006          19.250
        20.000
  -5958316.003 6  -4642821.266 6  22651955.549    22651963.529          13.750
        14.000
  -5409732.009 6  -4206072.868 5  23277069.479    23277076.607          14.500
        11.250
  10191835.191 5   7944568.626 5  24239375.135    24239384.428           8.000
         9.750
  22328618.060 5  17398902.070 5  23933422.221    23933433.803           7.750
         9.250
 99  3  2 20 37 30.0020000  0  6G 2G 7G 4G 9G26G27
  10652089.041 6   8300325.773 6  22431814.158    22431821.604          19.750
        16.000
   6946636.648 6   5412966.621 6  21340061.494    21340068.088          19.250
        20.000
  -5984153.645 6  -4662954.436 6  22647038.658    22647046.768          14.000
        14.250
  -5430908.499 6  -4222574.007 5  23273039.838    23273046.904          14.500
        11.250
  10238435.339 5   7980880.393 5  24248242.697    24248252.279           8.000
        10.000
  22401579.563 5  17455755.055 5  23947306.447    23947317.943           8.000
         9.250
 99  3  2 20 37 45.0020000  0  6G 2G 7G 4G 9G26G27
  10687181.034 6   8327670.153 6  22438491.971    22438499.291          19.750
        15.750
   6982393.943 6   5440829.442 6  21346865.955    21346872.525          19.250
        20.250
  -6009912.691 6  -4683026.357 6  22642136.830    22642144.795          14.000
        14.250
  -5452007.958 6  -4239015.108 5  23269024.689    23269031.752          14.750
        11.750
  10285103.672 5   8017245.259 5  24257123.330    24257132.744           8.000
        10.000
  22474591.507 5  17512647.356 5  23961200.221    23961211.670           7.750
         9.000
 99  3  2 20 38  0.0020000  0  6G 2G 7G 4G 9G26G27
  10722316.108 6   8355048.118 6  22445177.760    22445185.189          19.500
        15.750
   7018223.073 6   5468748.240 6  21353684.033    21353690.701          19.250
        20.000
  -6035591.261 6  -4703035.566 6  22637250.236    22637258.244          14.250
        14.250
  -5473029.868 6  -4255395.784 5  23265024.439    23265031.439          14.750
        11.500
  10331840.054 5   8053663.163 5  24266017.010    24266026.674           8.000
        10.250
  22547650.111 5  17569576.008 5  23975102.932    23975114.396           7.750
         9.000
 99  3  2 20 38 15.0020000  0  6G 2G 7G 4G 9G26G27
  10757491.644 6   8382457.602 6  22451871.533    22451878.826          19.500
        15.500
   7054124.199 6   5496723.135 6  21360515.830    21360522.314          19.250
        20.000
  -6061190.855 6  -4722983.242 6  22632378.900    22632386.850          14.250
        14.250
  -5493974.624 6  -4271716.350 5  23261038.830    23261045.830          15.000
        11.500
  10378642.493 5   8090132.540 5  24274923.221    24274933.084           8.000
        10.250
  22620755.257 5  17626540.935 5  23989014.533    23989025.826           7.750
         8.750
 99  3  2 20 38 30.0020000  0  6G 2G 7G 4G 9G26G27
  10792717.261 6   8409906.114 6  22458574.791    22458582.092          19.500
        15.500
   7090111.711 6   5524765.349 6  21367363.861    21367370.400          19.250
        20.000
  -6086702.227 6  -4742862.171 6  22627524.096    22627531.975          14.500
        14.250
  -5514829.519 6  -4287966.888 5  23257069.814    23257077.178          14.500
        11.500
  10425526.283 5   8126665.301 5  24283845.033    24283855.018           8.000
        10.500
  22693917.904 5  17683550.660 5  24002937.096    24002948.443           7.750
         8.750
 99  3  2 20 38 45.0020000  0  6G 2G 7G 4G 9G26G27
  10827987.423 6   8437389.325 6  22465286.564    22465293.924          19.250
        15.250
   7126180.615 6   5552870.983 6  21374227.455    21374233.932          19.250
        20.000
  -6112130.129 6  -4762676.053 6  22622685.182    22622693.170          14.500
        14.500
  -5535599.487 6  -4304151.253 5  23253117.393    23253124.846          14.500
        11.750
  10472482.320 5   8163254.374 5  24292780.408    24292790.646           8.000
        10.500
  22767131.210 5  17740599.857 5  24016869.127    24016880.760           7.500
         8.750
 99  3  2 20 39  0.0020000  0  6G 2G 7G 4G 9G26G27
  10863296.964 6   8464903.233 6  22472005.760    22472013.096          19.250
        15.250
   7162320.510 6   5581031.935 6  21381104.932    21381111.377          19.250
        19.750
  -6137481.594 6  -4782430.385 6  22617861.010    22617868.967          14.750
        14.500
  -5556294.265 6  -4320277.013 5  23249179.369    23249186.572          14.500
        11.750
  10519501.062 5   8199892.290 5  24301727.900    24301738.010           8.000
        10.250
  22840389.458 5  17797684.065 5  24030809.861    24030821.475           7.500
         8.750
 99  3  2 20 39 15.0020000  0  6G 2G 7G 4G 9G26G27
  10898650.184 6   8492451.171 6  22478733.424    22478740.643          19.250
        15.250
   7198528.789 6   5609246.176 6  21387995.174    21388001.580          19.250
        20.000
  -6162753.939 6  -4802123.064 6  22613051.744    22613059.803          14.750
        14.500
  -5576910.510 6  -4336341.596 6  23245256.244    23245263.623          14.250
        12.000
  10566584.747 5   8236580.820 5  24310687.713    24310697.760           8.000
        10.250
  22913697.102 4  17854806.772 5  24044760.088    24044771.475           7.250
         8.750
 99  3  2 20 39 30.0020000  0  6G 2G 7G 4G 9G26G27
  10934057.695 6   8520041.419 6  22485471.088    22485478.377          19.250
        15.250
   7234811.649 6   5637518.523 6  21394899.439    21394905.943          19.250
        20.000
  -6187941.044 6  -4821749.315 6  22608258.713    22608266.623          15.000
        14.500
  -5597441.128 6  -4352339.449 5  23241349.502    23241356.787          14.500
        11.750
  10613740.289 5   8273325.338 5  24319661.213    24319671.182           8.000
        10.250
  22987057.877 4  17911970.869 5  24058720.010    24058731.619           7.250
         8.750
 99  3  2 20 39 45.0020000  0  6G 2G 7G 4G 9G26G27
  10969515.698 6   8547671.015 6  22492218.596    22492226.068          19.250
        15.750
   7271161.041 6   5665842.718 6  21401816.525    21401822.998          19.250
        20.000
  -6213051.392 6  -4841315.764 6  22603480.385    22603488.342          15.000
        14.500
  -5617889.849 6  -4368273.491 6  23237458.135    23237465.428          14.500
        12.250
  10660960.096 5   8310119.923 5  24328646.822    24328656.842           8.000
        10.250
  23060463.544 4  17969169.953 5  24072688.768    24072700.475           7.250
         8.750
 99  3  2 20 40  0.0020000  0  6G 2G 7G 4G 9G26G27
  11005020.056 6   8575336.716 6  22498974.861    22498982.314          19.250
        15.500
   7307568.474 6   5694212.140 6  21408744.643    21408751.213          19.250
        20.000
  -6238088.253 6  -4860824.952 6  22598715.963    22598723.771          15.000
        14.500
  -5638261.728 6  -4384147.653 6  23233581.291    23233588.811          14.750
        12.250
  10708242.594 5   8346963.372 5  24337644.408    24337654.416           8.000
        10.000
  23133910.262 4  18026401.020 5  24086665.439    24086677.314           7.250
         8.500
 99  3  2 20 40 15.0020000  0  6G 2G 7G 4G 9G26G27
  11040573.968 6   8603041.037 6  22505740.588    22505748.053          19.250
        15.750
   7344033.366 6   5722626.333 6  21415683.689    21415690.396          19.250
        20.000
  -6263050.090 6  -4880275.676 6  22593965.908    22593973.725          15.000
        14.500
  -5658557.745 6  -4399962.708 6  23229719.260    23229726.857          14.750
        12.500
  10755591.699 5   8383858.722 5  24346654.729    24346664.756           8.000
        10.000
  23207402.570 4  18083667.621 5  24100650.471    24100662.389           7.250
         8.500
 99  3  2 20 40 30.0020000  0  6G 2G 7G 4G 9G26G27
  11076172.056 6   8630779.784 6  22512514.604    22512522.096          19.250
        15.750
   7380548.434 6   5751079.625 6  21422632.275    21422638.838          19.500
        20.000
  -6287945.123 6  -4899674.342 6  22589228.385    22589236.268          15.000
        14.500
  -5678784.824 6  -4415724.039 6  23225870.182    23225877.635          15.000
        12.500
  10803001.243 5   8420801.163 5  24355676.463    24355686.510           7.750
         9.500
  23280933.943 4  18140964.647 5  24114643.205    24114655.018           7.250
         8.250
 99  3  2 20 40 45.0020000  0  6G 2G 7G 4G 9G26G27
  11111832.847 6   8658567.395 6  22519300.650    22519308.170          18.750
        15.750
   7417125.261 6   5779581.040 6  21429592.705    21429599.193          19.500
        20.000
  -6312755.213 6  -4919006.829 6  22584507.236    22584515.088          15.000
        14.500
  -5698927.687 6  -4431419.748 6  23222036.979    23222044.463          15.000
        12.750
  10850483.350 5   8457800.159 5  24364712.275    24364722.061           7.750
         9.250
  23354516.763 4  18198301.774 5  24128645.830    24128657.455           7.250
         8.000
 99  3  2 20 41  0.0020000  0  6G 2G 7G 4G 9G26G27
  11147549.617 6   8686398.611 6  22526097.291    22526104.877          18.750
        15.750
   7453750.963 6   5808120.539 6  21436562.346    21436568.850          19.500
        20.000
  -6337487.564 6  -4938278.736 6  22579800.689    22579808.514          15.000
        14.500
  -5718996.772 6  -4447057.969 6  23218217.916    23218225.412          15.250
        12.750
  10898025.961 5   8494846.290 5  24373759.275    24373769.096           8.000
         9.250
  23428140.545 4  18255670.821 5  24142656.018    24142667.771           7.250
         7.750
 99  3  2 20 41 15.0020000  0  6G 2G 7G 4G 9G26G27
  11183318.760 6   8714270.648 6  22532904.158    22532911.518          19.000
        15.750
   7490422.267 6   5836695.574 6  21443540.666    21443547.248          19.500
        20.250
  -6362146.173 6  -4957493.184 6  22575108.213    22575116.053          15.000
        14.500
  -5738994.062 6  -4462640.249 6  23214412.486    23214419.936          15.250
        13.000
  10945627.242 5   8531938.130 5  24382817.197    24382827.631           7.750
         9.500
  23501802.061 4  18313069.240 5  24156673.314    24156685.373           7.000
         8.000
 99  3  2 20 41 30.0020000  0  6G 2G 7G 4G 9G26G27
  11219149.662 6   8742190.808 6  22539722.393    22539729.768          19.000
        15.750
   7527155.259 6   5865318.671 6  21450530.846    21450537.311          19.500
        20.250
  -6386718.996 6  -4976640.783 6  22570432.197    22570439.896          15.250
        14.500
  -5758905.245 6  -4478155.427 6  23210623.611    23210630.979          15.250
        13.250
  10993298.331 5   8569084.379 5  24391888.494    24391898.979           7.750
         9.500
  23575510.110 4  18370503.962 5  24170699.479    24170711.396           6.750
         7.750
 99  3  2 20 41 45.0020000  0  6G 2G 7G 4G 9G26G27
  11255033.572 6   8770152.273 6  22546550.854    22546558.307          18.500
        15.500
   7563942.020 6   5893983.673 6  21457531.033    21457537.619          19.000
        20.250
  -6411215.694 6  -4995729.066 6  22565770.572    22565778.299          15.000
        14.500
  -5778739.520 6  -4493610.687 6  23206849.361    23206856.775          14.750
        13.500
  11041030.923 5   8606278.549 5  24400972.010    24400982.217           7.500
         9.500
  23649256.298 4  18427968.370 5  24184733.229    24184745.229           6.500
         8.000
 99  3  2 20 42  0.0020000  0  6G 2G 7G 4G 9G26G27
  11290967.388 6   8798152.620 6  22553388.971    22553396.314          18.750
        15.750
   7600781.790 6   5922689.974 6  21464541.479    21464547.939          19.500
        20.250
  -6435633.868 6  -5014756.168 6  22561123.971    22561131.674          15.250
        14.500
  -5798497.082 6  -4509006.167 6  23203089.682    23203097.021          15.250
        13.000
  11088823.980 5   8643519.825 5  24410066.955    24410077.314           7.750
         9.250
  23723042.218 4  18485463.737 5  24198774.486    24198786.111           6.750
         7.750
 99  3  2 20 42 15.0020000  0  6G 2G 7G 4G 9G26G27
  11326960.461 6   8826199.146 6  22560238.166    22560245.502          18.250
        15.500
   7637687.419 6   5951447.596 6  21471564.127    21471570.771          18.750
        20.500
  -6459959.715 6  -5033711.314 6  22556494.854    22556502.600          15.000
        14.750
  -5818167.415 6  -4524333.677 6  23199346.291    23199353.814          14.750
        13.000
  11136687.510 5   8680816.029 5  24419175.111    24419185.553           7.500
         9.500
  23796879.718 4  18542999.313 5  24212825.221    24212837.146           6.250
         7.750
 99  3  2 20 42 30.0020000  0  6G 2G 7G 4G 9G26G27
  11363005.752 6   8854286.363 6  22567097.439    22567104.873          18.500
        15.750
   7674655.609 6   5980253.963 6  21478599.096    21478605.736          19.500
        20.250
  -6484198.616 6  -5052598.727 6  22551882.330    22551890.064          15.250
        14.500
  -5837756.617 6  -4539597.962 6  23195618.619    23195626.010          15.250
        13.500
  11184610.023 5   8718158.186 5  24428294.604    24428304.783           7.750
         9.250
  23870758.183 4  18600566.808 5  24226883.838    24226895.744           6.250
         7.500
 99  3  2 20 42 45.0020000  0  6G 2G 7G 4G 9G26G27
  11399103.059 6   8882414.107 6  22573966.463    22573973.920          18.500
        15.500
   7711686.268 6   6009109.013 6  21485645.900    21485652.439          19.750
        20.000
  -6508348.359 6  -5071416.664 6  22547286.822    22547294.490          15.500
        14.750
  -5857262.551 6  -4554797.368 6  23191906.729    23191914.088          15.000
        13.250
  11232589.101 5   8755544.422 5  24437424.893    24437434.963           7.750
         9.000
  23944673.110 4  18658162.707 5  24240949.424    24240961.537           6.250
         7.500
 99  3  2 20 43  0.0020000  0  6G 2G 7G 4G 9G26G27
  11435259.395 6   8910587.847 6  22580846.830    22580854.342          18.250
        15.750
   7748786.254 6   6038018.082 6  21492705.846    21492712.369          19.750
        20.250
  -6532403.084 6  -5090160.556 6  22542709.229    22542716.881          15.750
        14.750
  -5876678.054 6  -4569926.307 6  23188212.229    23188219.529          15.250
        13.500
  11280630.395 5   8792979.142 5  24446566.861    24446576.924           7.750
         9.000
  24018629.873 4  18715791.208 5  24255023.041    24255035.393           6.250
         7.500
 99  3  2 20 43 15.0020000  0  6G 2G 7G 4G 9G26G27
  11471473.030 6   8938806.243 6  22587737.994    22587745.650          18.250
        15.750
   7785957.409 6   6066982.607 6  21499779.197    21499785.764          19.750
        20.250
  -6556364.725 6  -5108831.915 6  22538149.486    22538157.217          15.750
        14.750
  -5896001.194 6  -4584983.274 6  23184535.096    23184542.283          15.250
        13.500
  11328734.913 5   8830463.120 5  24455720.979    24455730.998           7.750
         9.000
  24092630.403 4  18773453.791 5  24269105.111    24269117.205           6.250
         7.500
 99  3  2 20 43 30.0020000  0  6G 2G 7G 4G 9G26G27
  11507741.426 6   8967067.304 6  22594639.650    22594647.283          18.250
        15.750
   7823198.356 6   6096001.518 6  21506866.072    21506872.561          19.750
        20.250
  -6580236.939 6  -5127433.598 6  22533606.650    22533614.412          15.750
        14.750
  -5915234.245 6  -4599970.045 6  23180875.244    23180882.514          15.250
        13.500
  11376900.181 5   8867994.435 5  24464886.525    24464896.439           7.500
         8.750
  24166672.281 4  18831148.613 5  24283194.916    24283206.869           6.500
         7.500
 99  3  2 20 43 45.0020000  0  6G 2G 7G 4G 9G26G27
  11544072.531 6   8995377.228 6  22601553.322    22601561.057          18.250
        15.750
   7860514.596 6   6125079.090 6  21513967.033    21513973.654          19.750
        20.250
  -6604012.171 6  -5145959.713 6  22529082.377    22529089.928          15.750
        14.750
  -5934373.972 6  -4614884.100 6  23177232.963    23177240.373          15.250
        14.000
  11425133.922 5   8905579.123 5  24474065.189    24474075.232           7.750
         9.000
  24240761.878 4  18888880.618 5  24297293.877    24297305.959           6.500
         7.500
 99  3  2 20 44  0.0020000  0  6G 2G 7G 4G 9G26G27
  11580464.425 6   9023734.523 6  22608478.486    22608486.150          18.250
        15.750
   7897901.374 6   6154211.633 6  21521081.447    21521088.049          19.750
        20.250
  -6627691.413 6  -5164411.025 6  22524576.283    22524583.932          15.750
        15.000
  -5953422.829 6  -4629727.339 6  23173608.010    23173615.510          15.250
        14.000
  11473432.741 5   8943214.508 5  24483256.072    24483265.947           7.500
         9.000
  24314896.263 4  18946647.522 5  24311401.416    24311413.490           6.500
         7.250
 99  3  2 20 44 15.0020000  0  6G 2G 7G 4G 9G26G27
  11616916.220 6   9052138.484 6  22615415.010    22615422.744          18.000
        15.750
   7935359.683 6   6183399.911 6  21528209.627    21528216.213          19.750
        20.250
  -6651272.895 6  -5182786.159 6  22520088.830    22520096.627          15.750
        15.000
  -5972379.418 6  -4644498.688 6  23170000.916    23170008.154          15.750
        14.250
  11521795.543 5   8980899.735 5  24492459.455    24492469.232           7.500
         8.750
  24389074.565 4  19004448.652 5  24325517.049    24325529.197           6.250
         7.250
 99  3  2 20 44 30.0020000  0  6G 2G 7G 4G 9G26G27
  11653425.966 6   9080587.613 6  22622362.604    22622370.311          17.750
        15.750
   7972884.437 6   6212639.968 6  21535350.361    21535356.932          19.750
        20.250
  -6674761.749 6  -5201089.120 6  22515618.932    22515626.658          15.750
        15.000
  -5991249.083 6  -4659202.297 6  23166410.197    23166417.365          16.000
        14.000
  11570217.625 5   9018631.166 5  24501673.705    24501683.752           7.500
         8.750
  24463290.946 4  19062279.431 5  24339640.064    24339652.361           6.250
         7.250
 99  3  2 20 44 45.0020000  0  6G 2G 7G 4G 9G26G27
  11689993.600 6   9109081.845 6  22629321.268    22629328.951          17.750
        15.750
   8010473.086 6   6241929.810 6  21542503.252    21542509.846          19.750
        20.500
  -6698161.227 6  -5219322.432 6  22511166.338    22511174.041          15.750
        15.000
  -6010033.754 6  -4673839.685 6  23162835.502    23162842.713          16.250
        14.250
  11618699.964 4   9056409.541 5  24510899.510    24510909.604           7.250
         8.750
  24537543.100 4  19120138.097 5  24353769.807    24353782.365           6.250
         7.000
 99  3  2 20 45  0.0020000  0  6G 2G 7G 4G 9G26G27
  11726616.472 6   9137619.118 6  22636290.385    22636298.084          17.500
        15.500
   8048120.950 7   6271265.795 6  21549667.400    21549674.025          20.000
        20.500
  -6721474.916 6  -5237488.903 6  22506729.697    22506737.479          15.750
        15.250
  -6028736.178 6  -4688412.980 6  23159276.525    23159283.572          16.250
        14.000
  11667242.758 4   9094235.038 5  24520136.955    24520147.072           7.250
         8.500
  24611833.000 3  19178026.176 5  24367906.744    24367919.139           6.000
         7.000
 99  3  2 20 45 15.0020000  0  6G 2G 7G 4G 9G26G27
  11763305.612 6   9166208.031 6  22643272.072    22643279.697          17.500
        15.500
   8085840.664 6   6300657.767 6  21556845.127    21556851.842          19.750
        20.500
  -6744689.204 6  -5255577.919 6  22502312.197    22502319.967          15.750
        15.500
  -6047343.590 6  -4702912.247 6  23155735.502    23155742.631          16.500
        14.250
  11715859.722 4   9132118.315 5  24529388.658    24529398.994           7.250
         8.500
  24686177.132 3  19235956.506 5  24382054.229    24382066.447           6.000
         6.750
 99  3  2 20 45 30.0020000  0  6G 2G 7G 4G 9G26G27
  11800034.937 6   9194828.252 6  22650261.299    22650269.014          17.250
        15.500
   8123607.195 7   6330086.222 6  21564031.916    21564038.537          20.000
        20.500
  -6767827.029 6  -5273607.350 6  22497909.205    22497916.783          15.750
        15.750
  -6065883.444 6  -4717358.865 6  23152207.541    23152214.600          16.500
        14.250
  11764526.548 4   9170040.455 5  24538649.564    24538659.764           7.250
         8.750
  24760550.216 3  19293909.402 5  24396206.994    24396219.229           5.750
         6.750
 99  3  2 20 45 45.0020000  0  6G 2G 7G 4G 9G26G27
  11836816.727 6   9223489.363 6  22657260.650    22657268.459          17.000
        15.500
   8161432.845 7   6359560.745 6  21571229.994    21571236.576          20.000
        20.500
  -6790873.384 6  -5291565.509 6  22493523.424    22493531.107          15.750
        15.750
  -6084346.298 6  -4731745.483 6  23148694.197    23148701.314          16.750
        14.500
  11813257.067 4   9208012.229 5  24547922.807    24547932.963           7.250
         8.750
  24834962.117 3  19351892.539 5  24410367.057    24410379.682           5.750
         6.500
 99  3  2 20 46  0.0020000  0  6G 2G 7G 4G 9G26G27
  11873649.066 6   9252189.863 6  22664269.713    22664277.701          17.000
        15.500
   8199314.744 7   6389079.091 6  21578438.682    21578445.244          20.000
        20.750
  -6813829.506 6  -5309453.349 6  22489155.025    22489162.889          15.750
        16.000
  -6102730.541 6  -4746070.847 6  23145195.635    23145202.764          16.750
        14.500
  11862047.999 4   9246031.068 5  24557207.549    24557217.514           7.250
         8.750
  24909410.876 3  19409904.393 5  24424534.424    24424547.295           5.750
         6.750
 99  3  2 20 46 15.0020000  0  6G 2G 7G 4G 9G26G27
  11910535.628 6   9280932.603 6  22671288.979    22671296.936          17.000
        15.500
   8237255.041 7   6418642.948 6  21585658.533    21585665.182          20.000
        20.500
  -6836692.593 6  -5327268.698 6  22484804.408    22484812.162          15.750
        16.000
  -6121031.144 6  -4760331.030 6  23141713.346    23141720.529          16.500
        14.500
  11910899.780 4   9284097.337 5  24566503.783    24566513.885           7.250
         8.750
  24983897.792 3  19467945.999 5  24438709.064    24438721.654           5.750
         6.750
 99  3  2 20 46 30.0020000  0  6G 2G 7G 4G 9G26G27
  11947476.792 6   9309717.899 6  22678318.510    22678326.471          17.000
        15.250
   8275253.710 7   6448252.288 6  21592889.416    21592896.178          20.000
        21.000
  -6859464.649 6  -5345013.116 6  22480470.939    22480478.666          15.750
        16.250
  -6139248.002 6  -4774525.967 6  23138246.705    23138254.080          16.500
        14.500
  11959814.408 4   9322212.556 5  24575811.900    24575822.299           7.000
         8.750
  25058424.296 3  19526018.435 5  24452890.893    24452903.764           5.750
         6.500
 99  3  2 20 46 45.0020000  0  6G 2G 7G 4G 9G26G27
  11984467.011 6   9338541.415 6  22685357.697    22685365.635          17.000
        15.250
   8313305.557 7   6477903.060 6  21600130.182    21600136.893          20.000
        21.000
  -6882152.231 6  -5362691.715 6  22476153.533    22476161.287          15.750
        16.500
  -6157385.570 6  -4788659.121 6  23134795.307    23134802.447          16.750
        14.500
  12008785.839 4   9360372.043 5  24585131.135    24585141.092           7.250
         9.000
  25132984.681 3  19584117.267 5  24467079.729    24467092.404           5.750
         6.750
